Time,TemperatureF,DewpointF,PressureIn,WindDirection,WindDirectionDegrees,WindSpeedMPH,WindSpeedGustMPH,Humidity,HourlyPrecipIn,Conditions,Clouds,dailyrainin,SoftwareType,DateUTC
2013-10-03 00:00:00,66.1,62.1,30.15,North,11,0.0,0.0,87,0.00,CLR,,0.00,WeatherDisplay:10.37,2013-10-03 04:00:00,
2013-10-03 00:01:00,66.1,62.1,30.15,North,11,0.0,0.0,87,0.00,CLR,,0.00,WeatherDisplay:10.37,2013-10-03 04:01:00,
2013-10-03 00:02:00,65.9,61.9,30.15,North,11,0.0,0.0,87,0.00,CLR,,0.00,WeatherDisplay:10.37,2013-10-03 04:02:00,
2013-10-03 00:06:00,66.0,62.3,30.15,North,11,0.0,0.0,88,0.00,CLR,,0.00,WeatherDisplay:10.37,2013-10-03 04:06:00,
2013-10-03 00:07:00,66.2,62.5,30.15,North,11,0.0,0.0,88,0.00,CLR,,0.00,WeatherDisplay:10.37,2013-10-03 04:07:00,
2013-10-03 00:11:00,65.9,62.2,30.15,North,11,0.0,0.0,88,0.00,CLR,,0.00,WeatherDisplay:10.37,2013-10-03 04:11:00,
2013-10-03 00:12:00,65.4,61.8,30.15,North,11,0.0,0.0,88,0.00,CLR,,0.00,WeatherDisplay:10.37,2013-10-03 04:12:00,
2013-10-03 00:16:00,65.4,61.8,30.15,North,11,0.0,0.0,88,0.00,CLR,,0.00,WeatherDisplay:10.37,2013-10-03 04:16:00,
2013-10-03 00:17:00,65.8,62.1,30.15,North,11,0.0,0.0,88,0.00,CLR,,0.00,WeatherDisplay:10.37,2013-10-03 04:17:00,
2013-10-03 00:21:00,65.2,61.9,30.15,North,11,0.0,0.0,89,0.00,CLR,,0.00,WeatherDisplay:10.37,2013-10-03 04:21:00,
2013-10-03 00:22:00,65.5,62.2,30.15,North,11,0.0,0.0,89,0.00,CLR,,0.00,WeatherDisplay:10.37,2013-10-03 04:22:00,
2013-10-03 00:23:00,64.9,61.6,30.15,North,11,0.0,0.0,89,0.00,CLR,,0.00,WeatherDisplay:10.37,2013-10-03 04:23:00,
2013-10-03 00:26:00,64.9,61.6,30.15,North,11,0.0,0.0,89,0.00,CLR,,0.00,WeatherDisplay:10.37,2013-10-03 04:26:00,
2013-10-03 00:27:00,64.9,61.6,30.15,North,11,0.0,0.0,89,0.00,CLR,,0.00,WeatherDisplay:10.37,2013-10-03 04:27:00,
2013-10-03 00:28:00,64.8,61.5,30.15,North,11,0.0,0.0,89,0.00,CLR,,0.00,WeatherDisplay:10.37,2013-10-03 04:28:00,
2013-10-03 00:29:00,65.0,61.7,30.15,North,11,0.0,0.0,89,0.00,CLR,,0.00,WeatherDisplay:10.37,2013-10-03 04:29:00,
2013-10-03 00:32:00,64.6,61.6,30.15,North,11,0.0,0.0,90,0.00,CLR,,0.00,WeatherDisplay:10.37,2013-10-03 04:32:00,
2013-10-03 00:33:00,64.8,61.8,30.15,North,11,0.0,0.0,90,0.00,CLR,,0.00,WeatherDisplay:10.37,2013-10-03 04:33:00,
2013-10-03 00:34:00,64.8,61.8,30.15,North,11,0.0,0.0,90,0.00,CLR,,0.00,WeatherDisplay:10.37,2013-10-03 04:34:00,
2013-10-03 00:37:00,64.8,61.8,30.15,North,11,0.0,0.0,90,0.00,CLR,,0.00,WeatherDisplay:10.37,2013-10-03 04:37:00,
2013-10-03 00:38:00,64.5,61.5,30.15,North,11,0.0,0.0,90,0.00,CLR,,0.00,WeatherDisplay:10.37,2013-10-03 04:38:00,
2013-10-03 00:41:00,64.7,61.7,30.15,North,11,0.0,0.0,90,0.00,CLR,,0.00,WeatherDisplay:10.37,2013-10-03 04:41:00,
2013-10-03 00:42:00,64.8,61.8,30.15,North,11,0.0,0.0,90,0.00,CLR,,0.00,WeatherDisplay:10.37,2013-10-03 04:42:00,
2013-10-03 00:43:00,64.5,61.5,30.16,North,11,0.0,0.0,90,0.00,CLR,,0.00,WeatherDisplay:10.37,2013-10-03 04:43:00,
2013-10-03 00:44:00,64.9,61.9,30.16,North,11,0.0,0.0,90,0.00,CLR,,0.00,WeatherDisplay:10.37,2013-10-03 04:44:00,
2013-10-03 00:46:00,64.1,61.1,30.15,North,11,0.0,0.0,90,0.00,CLR,,0.00,WeatherDisplay:10.37,2013-10-03 04:46:00,
2013-10-03 00:47:00,64.2,61.2,30.15,North,11,0.0,0.0,90,0.00,CLR,,0.00,WeatherDisplay:10.37,2013-10-03 04:47:00,
2013-10-03 00:48:00,64.5,61.8,30.15,North,11,0.0,0.0,91,0.00,CLR,,0.00,WeatherDisplay:10.37,2013-10-03 04:48:00,
2013-10-03 00:49:00,64.2,61.5,30.15,North,11,0.0,0.0,91,0.00,CLR,,0.00,WeatherDisplay:10.37,2013-10-03 04:49:00,
2013-10-03 00:51:00,64.5,61.8,30.15,North,11,0.0,0.0,91,0.00,CLR,,0.00,WeatherDisplay:10.37,2013-10-03 04:51:00,
2013-10-03 00:52:00,64.7,62.0,30.15,North,11,0.0,0.0,91,0.00,CLR,,0.00,WeatherDisplay:10.37,2013-10-03 04:52:00,
2013-10-03 00:53:00,64.0,61.3,30.15,North,11,0.0,0.0,91,0.00,CLR,,0.00,WeatherDisplay:10.37,2013-10-03 04:53:00,
2013-10-03 00:54:00,64.4,61.7,30.15,North,11,0.0,0.0,91,0.00,CLR,,0.00,WeatherDisplay:10.37,2013-10-03 04:54:00,
2013-10-03 00:55:00,64.1,61.4,30.15,North,11,0.0,0.0,91,0.00,CLR,,0.00,WeatherDisplay:10.37,2013-10-03 04:55:00,
2013-10-03 00:57:00,64.3,61.6,30.15,North,11,0.0,0.0,91,0.00,CLR,,0.00,WeatherDisplay:10.37,2013-10-03 04:57:00,
2013-10-03 00:58:00,64.5,61.8,30.15,North,11,0.0,0.0,91,0.00,CLR,,0.00,WeatherDisplay:10.37,2013-10-03 04:58:00,
2013-10-03 00:59:00,64.5,61.8,30.15,North,11,0.0,0.0,91,0.00,CLR,,0.00,WeatherDisplay:10.37,2013-10-03 04:59:00,
2013-10-03 01:00:00,64.3,61.6,30.15,North,11,0.0,0.0,91,0.00,CLR,,0.00,WeatherDisplay:10.37,2013-10-03 05:00:00,
2013-10-03 01:02:00,64.6,61.9,30.15,North,11,0.0,0.0,91,0.00,CLR,,0.00,WeatherDisplay:10.37,2013-10-03 05:02:00,
2013-10-03 01:03:00,64.1,61.4,30.15,North,11,0.0,0.0,91,0.00,CLR,,0.00,WeatherDisplay:10.37,2013-10-03 05:03:00,
2013-10-03 01:04:00,64.2,61.5,30.15,North,11,0.0,0.0,91,0.00,CLR,,0.00,WeatherDisplay:10.37,2013-10-03 05:04:00,
2013-10-03 01:05:00,64.6,61.9,30.15,North,11,0.0,0.0,91,0.00,CLR,,0.00,WeatherDisplay:10.37,2013-10-03 05:05:00,
2013-10-03 01:07:00,64.1,61.4,30.15,North,11,0.0,0.0,91,0.00,CLR,,0.00,WeatherDisplay:10.37,2013-10-03 05:07:00,
2013-10-03 01:08:00,64.5,61.8,30.15,North,11,0.0,0.0,91,0.00,CLR,,0.00,WeatherDisplay:10.37,2013-10-03 05:08:00,
2013-10-03 01:09:00,64.1,61.4,30.15,North,11,0.0,0.0,91,0.00,CLR,,0.00,WeatherDisplay:10.37,2013-10-03 05:09:00,
2013-10-03 01:10:00,64.1,61.7,30.15,North,11,0.0,0.0,92,0.00,CLR,,0.00,WeatherDisplay:10.37,2013-10-03 05:10:00,
2013-10-03 01:12:00,64.2,61.8,30.15,North,11,0.0,0.0,92,0.00,CLR,,0.00,WeatherDisplay:10.37,2013-10-03 05:12:00,
2013-10-03 01:13:00,64.5,61.8,30.15,North,11,0.0,0.0,91,0.00,CLR,,0.00,WeatherDisplay:10.37,2013-10-03 05:13:00,
2013-10-03 01:14:00,64.3,61.9,30.15,North,11,0.0,0.0,92,0.00,CLR,,0.00,WeatherDisplay:10.37,2013-10-03 05:14:00,
2013-10-03 01:15:00,64.4,62.0,30.15,North,11,0.0,0.0,92,0.00,CLR,,0.00,WeatherDisplay:10.37,2013-10-03 05:15:00,
2013-10-03 01:18:00,64.1,61.4,30.16,North,11,0.0,0.0,91,0.00,CLR,,0.00,WeatherDisplay:10.37,2013-10-03 05:18:00,
2013-10-03 01:19:00,64.1,61.7,30.16,North,11,0.0,0.0,92,0.00,CLR,,0.00,WeatherDisplay:10.37,2013-10-03 05:19:00,
2013-10-03 01:20:00,64.3,61.9,30.16,North,11,0.0,0.0,92,0.00,CLR,,0.00,WeatherDisplay:10.37,2013-10-03 05:20:00,
2013-10-03 01:21:00,64.3,61.9,30.16,North,11,0.0,0.0,92,0.00,CLR,,0.00,WeatherDisplay:10.37,2013-10-03 05:21:00,
2013-10-03 01:23:00,64.2,61.8,30.16,North,11,0.0,0.0,92,0.00,CLR,,0.00,WeatherDisplay:10.37,2013-10-03 05:23:00,
2013-10-03 01:24:00,64.0,61.6,30.16,North,11,0.0,0.0,92,0.00,CLR,,0.00,WeatherDisplay:10.37,2013-10-03 05:24:00,
2013-10-03 01:25:00,64.3,61.9,30.16,North,11,0.0,0.0,92,0.00,CLR,,0.00,WeatherDisplay:10.37,2013-10-03 05:25:00,
2013-10-03 01:26:00,63.9,61.5,30.16,North,11,0.0,0.0,92,0.00,CLR,,0.00,WeatherDisplay:10.37,2013-10-03 05:26:00,
2013-10-03 01:28:00,64.1,61.7,30.15,North,11,0.0,0.0,92,0.00,CLR,,0.00,WeatherDisplay:10.37,2013-10-03 05:28:00,
2013-10-03 01:29:00,64.3,61.9,30.16,North,11,0.0,0.0,92,0.00,CLR,,0.00,WeatherDisplay:10.37,2013-10-03 05:29:00,
2013-10-03 01:30:00,64.1,61.7,30.16,North,11,0.0,0.0,92,0.00,CLR,,0.00,WeatherDisplay:10.37,2013-10-03 05:30:00,
2013-10-03 01:31:00,63.9,61.5,30.15,North,11,0.0,0.0,92,0.00,CLR,,0.00,WeatherDisplay:10.37,2013-10-03 05:31:00,
2013-10-03 01:33:00,63.9,61.5,30.15,North,11,0.0,0.0,92,0.00,CLR,,0.00,WeatherDisplay:10.37,2013-10-03 05:33:00,
2013-10-03 01:35:00,64.0,61.6,30.16,North,11,0.0,0.0,92,0.00,CLR,,0.00,WeatherDisplay:10.37,2013-10-03 05:35:00,
2013-10-03 01:36:00,64.1,61.7,30.15,North,11,0.0,0.0,92,0.00,CLR,,0.00,WeatherDisplay:10.37,2013-10-03 05:36:00,
2013-10-03 01:38:00,64.2,61.8,30.16,North,11,0.0,0.0,92,0.00,CLR,,0.00,WeatherDisplay:10.37,2013-10-03 05:38:00,
2013-10-03 01:39:00,64.1,61.7,30.16,North,11,0.0,0.0,92,0.00,CLR,,0.00,WeatherDisplay:10.37,2013-10-03 05:39:00,
2013-10-03 01:40:00,63.9,61.5,30.16,North,11,0.0,0.0,92,0.00,CLR,,0.00,WeatherDisplay:10.37,2013-10-03 05:40:00,
2013-10-03 01:41:00,64.3,61.9,30.15,North,11,0.0,0.0,92,0.00,CLR,,0.00,WeatherDisplay:10.37,2013-10-03 05:41:00,
2013-10-03 01:43:00,64.0,61.6,30.15,North,11,0.0,0.0,92,0.00,CLR,,0.00,WeatherDisplay:10.37,2013-10-03 05:43:00,
2013-10-03 01:44:00,64.3,62.2,30.15,North,11,0.0,0.0,93,0.00,CLR,,0.00,WeatherDisplay:10.37,2013-10-03 05:44:00,
2013-10-03 01:45:00,64.0,61.6,30.15,North,11,0.0,0.0,92,0.00,CLR,,0.00,WeatherDisplay:10.37,2013-10-03 05:45:00,
2013-10-03 01:46:00,64.2,62.1,30.15,North,11,0.0,0.0,93,0.00,CLR,,0.00,WeatherDisplay:10.37,2013-10-03 05:46:00,
2013-10-03 01:48:00,63.9,61.5,30.15,North,11,0.0,0.0,92,0.00,CLR,,0.00,WeatherDisplay:10.37,2013-10-03 05:48:00,
2013-10-03 01:50:00,64.0,61.6,30.15,North,11,0.0,0.0,92,0.00,CLR,,0.00,WeatherDisplay:10.37,2013-10-03 05:50:00,
2013-10-03 01:51:00,63.6,61.2,30.15,North,11,0.0,0.0,92,0.00,CLR,,0.00,WeatherDisplay:10.37,2013-10-03 05:51:00,
2013-10-03 01:53:00,63.9,61.5,30.15,North,11,0.0,0.0,92,0.00,CLR,,0.00,WeatherDisplay:10.37,2013-10-03 05:53:00,
2013-10-03 01:55:00,64.1,61.7,30.15,North,11,0.0,0.0,92,0.00,CLR,,0.00,WeatherDisplay:10.37,2013-10-03 05:55:00,
2013-10-03 01:57:00,64.1,61.7,30.15,North,11,0.0,0.0,92,0.00,CLR,,0.00,WeatherDisplay:10.37,2013-10-03 05:57:00,
2013-10-03 01:58:00,63.8,61.4,30.15,North,11,0.0,0.0,92,0.00,CLR,,0.00,WeatherDisplay:10.37,2013-10-03 05:58:00,
2013-10-03 02:00:00,63.9,61.5,30.15,North,11,0.0,0.0,92,0.00,CLR,,0.00,WeatherDisplay:10.37,2013-10-03 06:00:00,
2013-10-03 02:02:00,63.9,61.5,30.15,North,11,0.0,0.0,92,0.00,CLR,,0.00,WeatherDisplay:10.37,2013-10-03 06:02:00,
2013-10-03 02:03:00,63.8,61.4,30.15,North,11,0.0,0.0,92,0.00,CLR,,0.00,WeatherDisplay:10.37,2013-10-03 06:03:00,
2013-10-03 02:06:00,63.6,61.2,30.15,North,11,0.0,0.0,92,0.00,CLR,,0.00,WeatherDisplay:10.37,2013-10-03 06:06:00,
2013-10-03 02:07:00,63.8,61.4,30.15,North,11,0.0,0.0,92,0.00,CLR,,0.00,WeatherDisplay:10.37,2013-10-03 06:07:00,
2013-10-03 02:08:00,63.8,61.4,30.15,North,11,0.0,0.0,92,0.00,CLR,,0.00,WeatherDisplay:10.37,2013-10-03 06:08:00,
2013-10-03 02:11:00,63.7,61.3,30.15,North,11,0.0,0.0,92,0.00,CLR,,0.00,WeatherDisplay:10.37,2013-10-03 06:11:00,
2013-10-03 02:12:00,63.5,61.1,30.15,North,11,0.0,0.0,92,0.00,CLR,,0.00,WeatherDisplay:10.37,2013-10-03 06:12:00,
2013-10-03 02:13:00,63.6,61.2,30.15,North,11,0.0,0.0,92,0.00,CLR,,0.00,WeatherDisplay:10.37,2013-10-03 06:13:00,
2013-10-03 02:14:00,63.7,61.6,30.15,North,11,0.0,0.0,93,0.00,CLR,,0.00,WeatherDisplay:10.37,2013-10-03 06:14:00,
2013-10-03 02:16:00,63.5,61.4,30.15,North,11,0.0,0.0,93,0.00,CLR,,0.00,WeatherDisplay:10.37,2013-10-03 06:16:00,
2013-10-03 02:17:00,63.7,61.6,30.15,North,11,0.0,0.0,93,0.00,CLR,,0.00,WeatherDisplay:10.37,2013-10-03 06:17:00,
2013-10-03 02:18:00,63.2,61.1,30.15,North,11,0.0,0.0,93,0.00,CLR,,0.00,WeatherDisplay:10.37,2013-10-03 06:18:00,
2013-10-03 02:19:00,63.6,61.5,30.15,North,11,0.0,0.0,93,0.00,CLR,,0.00,WeatherDisplay:10.37,2013-10-03 06:19:00,
2013-10-03 02:21:00,63.4,61.3,30.16,North,11,0.0,0.0,93,0.00,CLR,,0.00,WeatherDisplay:10.37,2013-10-03 06:21:00,
2013-10-03 02:22:00,63.4,61.3,30.16,North,11,0.0,0.0,93,0.00,CLR,,0.00,WeatherDisplay:10.37,2013-10-03 06:22:00,
2013-10-03 02:23:00,63.7,61.6,30.15,North,11,0.0,0.0,93,0.00,CLR,,0.00,WeatherDisplay:10.37,2013-10-03 06:23:00,
2013-10-03 02:24:00,63.3,61.2,30.15,North,11,0.0,0.0,93,0.00,CLR,,0.00,WeatherDisplay:10.37,2013-10-03 06:24:00,
2013-10-03 02:26:00,63.3,61.2,30.15,North,11,0.0,0.0,93,0.00,CLR,,0.00,WeatherDisplay:10.37,2013-10-03 06:26:00,
2013-10-03 02:27:00,63.5,61.4,30.15,North,11,0.0,0.0,93,0.00,CLR,,0.00,WeatherDisplay:10.37,2013-10-03 06:27:00,
2013-10-03 02:29:00,63.1,61.0,30.15,North,11,0.0,0.0,93,0.00,CLR,,0.00,WeatherDisplay:10.37,2013-10-03 06:29:00,
2013-10-03 02:31:00,63.2,61.1,30.15,North,11,0.0,0.0,93,0.00,CLR,,0.00,WeatherDisplay:10.37,2013-10-03 06:31:00,
2013-10-03 02:32:00,63.0,60.9,30.15,North,11,0.0,0.0,93,0.00,CLR,,0.00,WeatherDisplay:10.37,2013-10-03 06:32:00,
2013-10-03 02:34:00,62.9,61.1,30.16,North,11,0.0,0.0,94,0.00,CLR,,0.00,WeatherDisplay:10.37,2013-10-03 06:34:00,
2013-10-03 02:35:00,62.9,61.1,30.16,North,11,0.0,0.0,94,0.00,CLR,,0.00,WeatherDisplay:10.37,2013-10-03 06:35:00,
2013-10-03 02:37:00,63.4,61.3,30.16,North,11,0.0,0.0,93,0.00,CLR,,0.00,WeatherDisplay:10.37,2013-10-03 06:37:00,
2013-10-03 02:39:00,63.1,61.3,30.15,North,11,0.0,0.0,94,0.00,CLR,,0.00,WeatherDisplay:10.37,2013-10-03 06:39:00,
2013-10-03 02:40:00,63.1,61.3,30.15,North,11,0.0,0.0,94,0.00,CLR,,0.00,WeatherDisplay:10.37,2013-10-03 06:40:00,
2013-10-03 02:41:00,63.1,61.3,30.15,North,11,0.0,0.0,94,0.00,CLR,,0.00,WeatherDisplay:10.37,2013-10-03 06:41:00,
2013-10-03 02:42:00,63.0,61.2,30.15,North,11,0.0,0.0,94,0.00,CLR,,0.00,WeatherDisplay:10.37,2013-10-03 06:42:00,
2013-10-03 02:43:00,63.1,61.3,30.15,North,11,0.0,0.0,94,0.00,CLR,,0.00,WeatherDisplay:10.37,2013-10-03 06:43:00,
2013-10-03 02:44:00,63.0,61.2,30.15,North,11,0.0,0.0,94,0.00,CLR,,0.00,WeatherDisplay:10.37,2013-10-03 06:44:00,
2013-10-03 02:46:00,63.1,61.3,30.15,North,11,0.0,0.0,94,0.00,CLR,,0.00,WeatherDisplay:10.37,2013-10-03 06:46:00,
2013-10-03 02:47:00,63.3,61.5,30.15,North,11,0.0,0.0,94,0.00,CLR,,0.00,WeatherDisplay:10.37,2013-10-03 06:47:00,
2013-10-03 02:48:00,62.7,60.9,30.15,North,11,0.0,0.0,94,0.00,CLR,,0.00,WeatherDisplay:10.37,2013-10-03 06:48:00,
2013-10-03 02:49:00,62.9,61.1,30.15,North,11,0.0,0.0,94,0.00,CLR,,0.00,WeatherDisplay:10.37,2013-10-03 06:49:00,
2013-10-03 02:51:00,62.9,61.1,30.15,North,11,0.0,0.0,94,0.00,CLR,,0.00,WeatherDisplay:10.37,2013-10-03 06:51:00,
2013-10-03 02:52:00,62.6,60.8,30.15,North,11,0.0,0.0,94,0.00,CLR,,0.00,WeatherDisplay:10.37,2013-10-03 06:52:00,
2013-10-03 02:53:00,62.7,60.9,30.15,North,11,0.0,0.0,94,0.00,CLR,,0.00,WeatherDisplay:10.37,2013-10-03 06:53:00,
2013-10-03 02:54:00,62.6,60.8,30.15,North,11,0.0,0.0,94,0.00,CLR,,0.00,WeatherDisplay:10.37,2013-10-03 06:54:00,
2013-10-03 02:56:00,62.6,60.8,30.15,North,11,0.0,0.0,94,0.00,CLR,,0.00,WeatherDisplay:10.37,2013-10-03 06:56:00,
2013-10-03 02:57:00,62.8,61.0,30.15,North,11,0.0,0.0,94,0.00,CLR,,0.00,WeatherDisplay:10.37,2013-10-03 06:57:00,
2013-10-03 02:58:00,62.6,60.8,30.15,North,11,0.0,0.0,94,0.00,CLR,,0.00,WeatherDisplay:10.37,2013-10-03 06:58:00,
2013-10-03 02:59:00,62.4,60.7,30.15,North,11,0.0,0.0,94,0.00,CLR,,0.00,WeatherDisplay:10.37,2013-10-03 06:59:00,
2013-10-03 03:00:00,62.5,60.7,30.15,North,11,0.0,0.0,94,0.00,CLR,,0.00,WeatherDisplay:10.37,2013-10-03 07:00:00,
2013-10-03 03:02:00,62.5,61.0,30.15,North,11,0.0,0.0,95,0.00,CLR,,0.00,WeatherDisplay:10.37,2013-10-03 07:02:00,
2013-10-03 03:03:00,62.2,60.8,30.15,North,11,0.0,0.0,95,0.00,CLR,,0.00,WeatherDisplay:10.37,2013-10-03 07:03:00,
2013-10-03 03:04:00,62.5,61.0,30.15,North,11,0.0,0.0,95,0.00,CLR,,0.00,WeatherDisplay:10.37,2013-10-03 07:04:00,
2013-10-03 03:05:00,62.4,60.9,30.15,North,11,0.0,0.0,95,0.00,CLR,,0.00,WeatherDisplay:10.37,2013-10-03 07:05:00,
2013-10-03 03:07:00,62.4,60.9,30.15,North,11,0.0,0.0,95,0.00,CLR,,0.00,WeatherDisplay:10.37,2013-10-03 07:07:00,
2013-10-03 03:08:00,62.3,60.8,30.15,North,11,0.0,0.0,95,0.00,CLR,,0.00,WeatherDisplay:10.37,2013-10-03 07:08:00,
2013-10-03 03:10:00,62.5,61.0,30.15,North,11,0.0,0.0,95,0.00,CLR,,0.00,WeatherDisplay:10.37,2013-10-03 07:10:00,
2013-10-03 03:11:00,62.3,60.8,30.15,North,11,0.0,0.0,95,0.00,CLR,,0.00,WeatherDisplay:10.37,2013-10-03 07:11:00,
2013-10-03 03:12:00,62.3,60.8,30.14,North,11,0.0,0.0,95,0.00,CLR,,0.00,WeatherDisplay:10.37,2013-10-03 07:12:00,
2013-10-03 03:13:00,62.3,60.8,30.14,North,11,0.0,0.0,95,0.00,CLR,,0.00,WeatherDisplay:10.37,2013-10-03 07:13:00,
2013-10-03 03:14:00,62.5,61.0,30.14,North,11,0.0,0.0,95,0.00,CLR,,0.00,WeatherDisplay:10.37,2013-10-03 07:14:00,
2013-10-03 03:15:00,62.0,60.6,30.14,North,11,0.0,0.0,95,0.00,CLR,,0.00,WeatherDisplay:10.37,2013-10-03 07:15:00,
2013-10-03 03:16:00,62.7,61.2,30.14,North,11,0.0,0.0,95,0.00,CLR,,0.00,WeatherDisplay:10.37,2013-10-03 07:16:00,
2013-10-03 03:17:00,62.3,60.8,30.14,North,11,0.0,0.0,95,0.00,CLR,,0.00,WeatherDisplay:10.37,2013-10-03 07:17:00,
2013-10-03 03:18:00,62.0,60.6,30.14,North,11,0.0,0.0,95,0.00,CLR,,0.00,WeatherDisplay:10.37,2013-10-03 07:18:00,
2013-10-03 03:19:00,62.3,60.8,30.14,North,11,0.0,0.0,95,0.00,CLR,,0.00,WeatherDisplay:10.37,2013-10-03 07:19:00,
2013-10-03 03:20:00,62.7,61.2,30.14,North,11,0.0,0.0,95,0.00,CLR,,0.00,WeatherDisplay:10.37,2013-10-03 07:20:00,
2013-10-03 03:22:00,62.0,60.6,30.14,North,11,0.0,0.0,95,0.00,CLR,,0.00,WeatherDisplay:10.37,2013-10-03 07:22:00,
2013-10-03 03:23:00,62.2,60.8,30.14,North,11,0.0,0.0,95,0.00,CLR,,0.00,WeatherDisplay:10.37,2013-10-03 07:23:00,
2013-10-03 03:25:00,62.3,60.8,30.14,North,11,0.0,0.0,95,0.00,CLR,,0.00,WeatherDisplay:10.37,2013-10-03 07:25:00,
2013-10-03 03:26:00,62.4,60.9,30.14,North,11,0.0,0.0,95,0.00,CLR,,0.00,WeatherDisplay:10.37,2013-10-03 07:26:00,
2013-10-03 03:27:00,62.0,60.6,30.14,North,11,0.0,0.0,95,0.00,CLR,,0.00,WeatherDisplay:10.37,2013-10-03 07:27:00,
2013-10-03 03:28:00,61.8,60.4,30.14,North,11,0.0,0.0,95,0.00,CLR,,0.00,WeatherDisplay:10.37,2013-10-03 07:28:00,
2013-10-03 03:29:00,62.0,60.8,30.15,North,11,0.0,0.0,96,0.00,CLR,,0.00,WeatherDisplay:10.37,2013-10-03 07:29:00,
2013-10-03 03:30:00,62.1,60.7,30.15,North,11,0.0,0.0,95,0.00,CLR,,0.00,WeatherDisplay:10.37,2013-10-03 07:30:00,
2013-10-03 03:31:00,61.7,60.3,30.15,North,11,0.0,0.0,95,0.00,CLR,,0.00,WeatherDisplay:10.37,2013-10-03 07:31:00,
2013-10-03 03:33:00,61.9,60.5,30.15,North,11,0.0,0.0,95,0.00,CLR,,0.00,WeatherDisplay:10.37,2013-10-03 07:33:00,
2013-10-03 03:34:00,61.7,60.5,30.15,North,11,0.0,0.0,96,0.00,CLR,,0.00,WeatherDisplay:10.37,2013-10-03 07:34:00,
2013-10-03 03:35:00,61.5,60.1,30.15,North,11,0.0,0.0,95,0.00,CLR,,0.00,WeatherDisplay:10.37,2013-10-03 07:35:00,
2013-10-03 03:36:00,61.9,60.7,30.15,North,11,0.0,0.0,96,0.00,CLR,,0.00,WeatherDisplay:10.37,2013-10-03 07:36:00,
2013-10-03 03:38:00,61.6,60.4,30.15,North,11,0.0,0.0,96,0.00,CLR,,0.00,WeatherDisplay:10.37,2013-10-03 07:38:00,
2013-10-03 03:39:00,61.7,60.3,30.15,North,11,0.0,0.0,95,0.00,CLR,,0.00,WeatherDisplay:10.37,2013-10-03 07:39:00,
2013-10-03 03:40:00,61.5,60.3,30.15,North,11,0.0,0.0,96,0.00,CLR,,0.00,WeatherDisplay:10.37,2013-10-03 07:40:00,
2013-10-03 03:41:00,61.2,60.1,30.15,North,11,0.0,0.0,96,0.00,CLR,,0.00,WeatherDisplay:10.37,2013-10-03 07:41:00,
2013-10-03 03:42:00,62.2,61.0,30.15,North,11,0.0,0.0,96,0.00,CLR,,0.00,WeatherDisplay:10.37,2013-10-03 07:42:00,
2013-10-03 03:43:00,61.5,60.3,30.15,North,11,0.0,0.0,96,0.00,CLR,,0.00,WeatherDisplay:10.37,2013-10-03 07:43:00,
2013-10-03 03:44:00,61.3,60.2,30.15,North,11,0.0,0.0,96,0.00,CLR,,0.00,WeatherDisplay:10.37,2013-10-03 07:44:00,
2013-10-03 03:45:00,61.6,60.4,30.15,North,11,0.0,0.0,96,0.00,CLR,,0.00,WeatherDisplay:10.37,2013-10-03 07:45:00,
2013-10-03 03:46:00,61.5,60.3,30.15,North,11,0.0,0.0,96,0.00,CLR,,0.00,WeatherDisplay:10.37,2013-10-03 07:46:00,
2013-10-03 03:48:00,61.5,60.3,30.14,North,11,0.0,0.0,96,0.00,CLR,,0.00,WeatherDisplay:10.37,2013-10-03 07:48:00,
2013-10-03 03:49:00,61.9,60.7,30.14,North,11,0.0,0.0,96,0.00,CLR,,0.00,WeatherDisplay:10.37,2013-10-03 07:49:00,
2013-10-03 03:50:00,61.9,60.7,30.14,North,11,0.0,0.0,96,0.00,CLR,,0.00,WeatherDisplay:10.37,2013-10-03 07:50:00,
2013-10-03 03:51:00,61.7,60.5,30.15,North,11,0.0,0.0,96,0.00,CLR,,0.00,WeatherDisplay:10.37,2013-10-03 07:51:00,
2013-10-03 03:53:00,61.7,60.5,30.15,North,11,0.0,0.0,96,0.00,CLR,,0.00,WeatherDisplay:10.37,2013-10-03 07:53:00,
2013-10-03 03:54:00,61.9,60.7,30.15,North,11,0.0,0.0,96,0.00,CLR,,0.00,WeatherDisplay:10.37,2013-10-03 07:54:00,
2013-10-03 03:55:00,61.5,60.3,30.15,North,11,0.0,0.0,96,0.00,CLR,,0.00,WeatherDisplay:10.37,2013-10-03 07:55:00,
2013-10-03 03:56:00,61.6,60.4,30.15,North,11,0.0,0.0,96,0.00,CLR,,0.00,WeatherDisplay:10.37,2013-10-03 07:56:00,
2013-10-03 03:58:00,61.7,60.5,30.15,North,11,0.0,0.0,96,0.00,CLR,,0.00,WeatherDisplay:10.37,2013-10-03 07:58:00,
2013-10-03 03:59:00,62.1,60.9,30.15,North,11,0.0,0.0,96,0.00,CLR,,0.00,WeatherDisplay:10.37,2013-10-03 07:59:00,
2013-10-03 04:00:00,62.0,60.8,30.15,North,11,0.0,0.0,96,0.00,CLR,,0.00,WeatherDisplay:10.37,2013-10-03 08:00:00,
2013-10-03 04:01:00,61.6,60.4,30.15,North,11,0.0,0.0,96,0.00,CLR,,0.00,WeatherDisplay:10.37,2013-10-03 08:01:00,
2013-10-03 04:04:00,62.0,60.8,30.15,North,11,0.0,0.0,96,0.00,CLR,,0.00,WeatherDisplay:10.37,2013-10-03 08:04:00,
2013-10-03 04:05:00,61.8,60.6,30.15,North,11,0.0,0.0,96,0.00,CLR,,0.00,WeatherDisplay:10.37,2013-10-03 08:05:00,
2013-10-03 04:06:00,61.6,60.4,30.15,North,11,0.0,0.0,96,0.00,CLR,,0.00,WeatherDisplay:10.37,2013-10-03 08:06:00,
2013-10-03 04:07:00,61.5,60.3,30.15,North,11,0.0,0.0,96,0.00,CLR,,0.00,WeatherDisplay:10.37,2013-10-03 08:07:00,
2013-10-03 04:09:00,61.3,60.2,30.15,North,11,0.0,0.0,96,0.00,CLR,,0.00,WeatherDisplay:10.37,2013-10-03 08:09:00,
2013-10-03 04:10:00,61.8,60.6,30.15,North,11,0.0,0.0,96,0.00,CLR,,0.00,WeatherDisplay:10.37,2013-10-03 08:10:00,
2013-10-03 04:11:00,61.5,60.3,30.15,North,11,0.0,0.0,96,0.00,CLR,,0.00,WeatherDisplay:10.37,2013-10-03 08:11:00,
2013-10-03 04:12:00,61.5,60.3,30.15,North,11,0.0,0.0,96,0.00,CLR,,0.00,WeatherDisplay:10.37,2013-10-03 08:12:00,
2013-10-03 04:14:00,62.3,61.1,30.15,North,11,0.0,0.0,96,0.00,CLR,,0.00,WeatherDisplay:10.37,2013-10-03 08:14:00,
2013-10-03 04:15:00,61.8,60.6,30.15,North,11,0.0,0.0,96,0.00,CLR,,0.00,WeatherDisplay:10.37,2013-10-03 08:15:00,
2013-10-03 04:16:00,61.6,60.4,30.15,North,11,0.0,0.0,96,0.00,CLR,,0.00,WeatherDisplay:10.37,2013-10-03 08:16:00,
2013-10-03 04:17:00,61.5,60.3,30.15,North,11,0.0,0.0,96,0.00,CLR,,0.00,WeatherDisplay:10.37,2013-10-03 08:17:00,
2013-10-03 04:19:00,62.1,60.9,30.15,North,11,0.0,0.0,96,0.00,CLR,,0.00,WeatherDisplay:10.37,2013-10-03 08:19:00,
2013-10-03 04:20:00,61.6,60.4,30.15,North,11,0.0,0.0,96,0.00,CLR,,0.00,WeatherDisplay:10.37,2013-10-03 08:20:00,
2013-10-03 04:21:00,62.0,60.8,30.14,North,11,0.0,0.0,96,0.00,CLR,,0.00,WeatherDisplay:10.37,2013-10-03 08:21:00,
2013-10-03 04:22:00,61.4,60.2,30.14,North,11,0.0,0.0,96,0.00,CLR,,0.00,WeatherDisplay:10.37,2013-10-03 08:22:00,
2013-10-03 04:24:00,62.1,60.9,30.15,North,11,0.0,0.0,96,0.00,CLR,,0.00,WeatherDisplay:10.37,2013-10-03 08:24:00,
2013-10-03 04:25:00,61.6,60.4,30.15,North,11,0.0,0.0,96,0.00,CLR,,0.00,WeatherDisplay:10.37,2013-10-03 08:25:00,
2013-10-03 04:26:00,61.8,60.6,30.15,North,11,0.0,0.0,96,0.00,CLR,,0.00,WeatherDisplay:10.37,2013-10-03 08:26:00,
2013-10-03 04:27:00,61.9,61.0,30.14,North,11,0.0,0.0,97,0.00,CLR,,0.00,WeatherDisplay:10.37,2013-10-03 08:27:00,
2013-10-03 04:28:00,61.7,60.5,30.15,North,11,0.0,0.0,96,0.00,CLR,,0.00,WeatherDisplay:10.37,2013-10-03 08:28:00,
2013-10-03 04:29:00,61.6,60.4,30.15,North,11,0.0,0.0,96,0.00,CLR,,0.00,WeatherDisplay:10.37,2013-10-03 08:29:00,
2013-10-03 04:30:00,62.0,60.8,30.15,North,11,0.0,0.0,96,0.00,CLR,,0.00,WeatherDisplay:10.37,2013-10-03 08:30:00,
2013-10-03 04:31:00,61.8,60.6,30.15,North,11,0.0,0.0,96,0.00,CLR,,0.00,WeatherDisplay:10.37,2013-10-03 08:31:00,
2013-10-03 04:33:00,61.7,60.5,30.15,North,11,0.0,0.0,96,0.00,CLR,,0.00,WeatherDisplay:10.37,2013-10-03 08:33:00,
2013-10-03 04:34:00,61.9,60.7,30.15,North,11,0.0,0.0,96,0.00,CLR,,0.00,WeatherDisplay:10.37,2013-10-03 08:34:00,
2013-10-03 04:35:00,61.7,60.5,30.15,North,11,0.0,0.0,96,0.00,CLR,,0.00,WeatherDisplay:10.37,2013-10-03 08:35:00,
2013-10-03 04:36:00,61.7,60.5,30.15,North,11,0.0,0.0,96,0.00,CLR,,0.00,WeatherDisplay:10.37,2013-10-03 08:36:00,
2013-10-03 04:38:00,61.7,60.5,30.15,North,11,0.0,0.0,96,0.00,CLR,,0.00,WeatherDisplay:10.37,2013-10-03 08:38:00,
2013-10-03 04:39:00,61.6,60.4,30.15,North,11,0.0,0.0,96,0.00,CLR,,0.00,WeatherDisplay:10.37,2013-10-03 08:39:00,
2013-10-03 04:40:00,61.7,60.5,30.15,North,11,0.0,0.0,96,0.00,CLR,,0.00,WeatherDisplay:10.37,2013-10-03 08:40:00,
2013-10-03 04:41:00,62.1,60.9,30.15,North,11,0.0,0.0,96,0.00,CLR,,0.00,WeatherDisplay:10.37,2013-10-03 08:41:00,
2013-10-03 04:42:00,61.7,60.8,30.15,North,11,0.0,0.0,97,0.00,CLR,,0.00,WeatherDisplay:10.37,2013-10-03 08:42:00,
2013-10-03 04:43:00,61.8,60.6,30.15,North,11,0.0,0.0,96,0.00,CLR,,0.00,WeatherDisplay:10.37,2013-10-03 08:43:00,
2013-10-03 04:44:00,61.7,60.5,30.15,North,11,0.0,0.0,96,0.00,CLR,,0.00,WeatherDisplay:10.37,2013-10-03 08:44:00,
2013-10-03 04:45:00,61.4,60.2,30.15,North,11,0.0,0.0,96,0.00,CLR,,0.00,WeatherDisplay:10.37,2013-10-03 08:45:00,
2013-10-03 04:46:00,61.5,60.6,30.15,North,11,0.0,0.0,97,0.00,CLR,,0.00,WeatherDisplay:10.37,2013-10-03 08:46:00,
2013-10-03 04:47:00,61.8,60.9,30.15,North,11,0.0,0.0,97,0.00,CLR,,0.00,WeatherDisplay:10.37,2013-10-03 08:47:00,
2013-10-03 04:49:00,61.4,60.5,30.15,North,11,0.0,0.0,97,0.00,CLR,,0.00,WeatherDisplay:10.37,2013-10-03 08:49:00,
2013-10-03 04:50:00,61.4,60.5,30.15,North,11,0.0,0.0,97,0.00,CLR,,0.00,WeatherDisplay:10.37,2013-10-03 08:50:00,
2013-10-03 04:51:00,61.6,60.7,30.15,North,11,0.0,0.0,97,0.00,CLR,,0.00,WeatherDisplay:10.37,2013-10-03 08:51:00,
2013-10-03 04:52:00,61.4,60.5,30.15,North,11,0.0,0.0,97,0.00,CLR,,0.00,WeatherDisplay:10.37,2013-10-03 08:52:00,
2013-10-03 04:54:00,61.5,60.6,30.15,North,11,0.0,0.0,97,0.00,CLR,,0.00,WeatherDisplay:10.37,2013-10-03 08:54:00,
2013-10-03 04:55:00,61.1,60.2,30.15,North,11,0.0,0.0,97,0.00,CLR,,0.00,WeatherDisplay:10.37,2013-10-03 08:55:00,
2013-10-03 04:56:00,61.3,60.4,30.15,North,11,0.0,0.0,97,0.00,CLR,,0.00,WeatherDisplay:10.37,2013-10-03 08:56:00,
2013-10-03 04:57:00,61.4,60.5,30.15,North,11,0.0,0.0,97,0.00,CLR,,0.00,WeatherDisplay:10.37,2013-10-03 08:57:00,
2013-10-03 04:59:00,61.5,60.6,30.15,North,11,0.0,0.0,97,0.00,CLR,,0.00,WeatherDisplay:10.37,2013-10-03 08:59:00,
2013-10-03 05:00:00,61.5,60.6,30.15,North,11,0.0,0.0,97,0.00,CLR,,0.00,WeatherDisplay:10.37,2013-10-03 09:00:00,
2013-10-03 05:01:00,61.5,60.6,30.15,North,11,0.0,0.0,97,0.00,CLR,,0.00,WeatherDisplay:10.37,2013-10-03 09:01:00,
2013-10-03 05:02:00,61.3,60.4,30.15,North,11,0.0,0.0,97,0.00,CLR,,0.00,WeatherDisplay:10.37,2013-10-03 09:02:00,
2013-10-03 05:04:00,61.3,60.4,30.15,North,11,0.0,0.0,97,0.00,CLR,,0.00,WeatherDisplay:10.37,2013-10-03 09:04:00,
2013-10-03 05:05:00,61.8,60.9,30.15,North,11,0.0,0.0,97,0.00,CLR,,0.00,WeatherDisplay:10.37,2013-10-03 09:05:00,
2013-10-03 05:06:00,61.3,60.4,30.15,North,11,0.0,0.0,97,0.00,CLR,,0.00,WeatherDisplay:10.37,2013-10-03 09:06:00,
2013-10-03 05:07:00,61.3,60.4,30.15,North,11,0.0,0.0,97,0.00,CLR,,0.00,WeatherDisplay:10.37,2013-10-03 09:07:00,
2013-10-03 05:09:00,61.2,60.3,30.15,North,11,0.0,0.0,97,0.00,CLR,,0.00,WeatherDisplay:10.37,2013-10-03 09:09:00,
2013-10-03 05:10:00,61.4,60.5,30.15,North,11,0.0,0.0,97,0.00,CLR,,0.00,WeatherDisplay:10.37,2013-10-03 09:10:00,
2013-10-03 05:11:00,61.4,60.5,30.15,North,11,0.0,0.0,97,0.00,CLR,,0.00,WeatherDisplay:10.37,2013-10-03 09:11:00,
2013-10-03 05:12:00,61.1,60.2,30.15,North,11,0.0,0.0,97,0.00,CLR,,0.00,WeatherDisplay:10.37,2013-10-03 09:12:00,
2013-10-03 05:13:00,61.1,60.2,30.15,North,11,0.0,0.0,97,0.00,CLR,,0.00,WeatherDisplay:10.37,2013-10-03 09:13:00,
2013-10-03 05:14:00,61.3,60.4,30.15,North,11,0.0,0.0,97,0.00,CLR,,0.00,WeatherDisplay:10.37,2013-10-03 09:14:00,
2013-10-03 05:15:00,61.6,60.7,30.15,North,11,0.0,0.0,97,0.00,CLR,,0.00,WeatherDisplay:10.37,2013-10-03 09:15:00,
2013-10-03 05:17:00,61.5,60.6,30.15,North,11,0.0,0.0,97,0.00,CLR,,0.00,WeatherDisplay:10.37,2013-10-03 09:17:00,
2013-10-03 05:18:00,61.1,60.2,30.15,North,11,0.0,0.0,97,0.00,CLR,,0.00,WeatherDisplay:10.37,2013-10-03 09:18:00,
2013-10-03 05:19:00,61.6,60.7,30.15,North,11,0.0,0.0,97,0.00,CLR,,0.00,WeatherDisplay:10.37,2013-10-03 09:19:00,
2013-10-03 05:21:00,61.1,60.2,30.15,North,11,0.0,0.0,97,0.00,CLR,,0.00,WeatherDisplay:10.37,2013-10-03 09:21:00,
2013-10-03 05:22:00,61.4,60.5,30.15,North,11,0.0,0.0,97,0.00,CLR,,0.00,WeatherDisplay:10.37,2013-10-03 09:22:00,
2013-10-03 05:23:00,61.0,60.1,30.15,North,11,0.0,0.0,97,0.00,CLR,,0.00,WeatherDisplay:10.37,2013-10-03 09:23:00,
2013-10-03 05:24:00,61.1,60.2,30.15,North,11,0.0,0.0,97,0.00,CLR,,0.00,WeatherDisplay:10.37,2013-10-03 09:24:00,
2013-10-03 05:26:00,61.0,60.1,30.15,North,11,0.0,0.0,97,0.00,CLR,,0.00,WeatherDisplay:10.37,2013-10-03 09:26:00,
2013-10-03 05:27:00,60.9,60.0,30.15,North,11,0.0,0.0,97,0.00,CLR,,0.00,WeatherDisplay:10.37,2013-10-03 09:27:00,
2013-10-03 05:28:00,60.9,60.0,30.15,North,11,0.0,0.0,97,0.00,CLR,,0.00,WeatherDisplay:10.37,2013-10-03 09:28:00,
2013-10-03 05:29:00,60.6,59.7,30.15,North,11,0.0,0.0,97,0.00,CLR,,0.00,WeatherDisplay:10.37,2013-10-03 09:29:00,
2013-10-03 05:30:00,61.4,60.8,30.15,North,11,0.0,0.0,98,0.00,CLR,,0.00,WeatherDisplay:10.37,2013-10-03 09:30:00,
2013-10-03 05:31:00,61.5,60.9,30.15,North,11,0.0,0.0,98,0.00,CLR,,0.00,WeatherDisplay:10.37,2013-10-03 09:31:00,
2013-10-03 05:32:00,61.5,60.9,30.15,North,11,0.0,0.0,98,0.00,CLR,,0.00,WeatherDisplay:10.37,2013-10-03 09:32:00,
2013-10-03 05:33:00,60.9,60.3,30.15,North,11,0.0,0.0,98,0.00,CLR,,0.00,WeatherDisplay:10.37,2013-10-03 09:33:00,
2013-10-03 05:35:00,61.3,60.7,30.15,North,11,0.0,0.0,98,0.00,CLR,,0.00,WeatherDisplay:10.37,2013-10-03 09:35:00,
2013-10-03 05:36:00,61.0,60.4,30.15,North,11,0.0,0.0,98,0.00,CLR,,0.00,WeatherDisplay:10.37,2013-10-03 09:36:00,
2013-10-03 05:37:00,60.8,60.2,30.15,North,11,0.0,0.0,98,0.00,CLR,,0.00,WeatherDisplay:10.37,2013-10-03 09:37:00,
2013-10-03 05:38:00,61.2,60.6,30.15,North,11,0.0,0.0,98,0.00,CLR,,0.00,WeatherDisplay:10.37,2013-10-03 09:38:00,
2013-10-03 05:39:00,61.0,60.4,30.15,North,11,0.0,0.0,98,0.00,CLR,,0.00,WeatherDisplay:10.37,2013-10-03 09:39:00,
2013-10-03 05:40:00,61.0,60.4,30.15,North,11,0.0,0.0,98,0.00,CLR,,0.00,WeatherDisplay:10.37,2013-10-03 09:40:00,
2013-10-03 05:41:00,61.1,60.5,30.15,North,11,0.0,0.0,98,0.00,CLR,,0.00,WeatherDisplay:10.37,2013-10-03 09:41:00,
2013-10-03 05:42:00,61.2,60.6,30.15,North,11,0.0,0.0,98,0.00,CLR,,0.00,WeatherDisplay:10.37,2013-10-03 09:42:00,
2013-10-03 05:43:00,60.9,60.3,30.15,North,11,0.0,0.0,98,0.00,CLR,,0.00,WeatherDisplay:10.37,2013-10-03 09:43:00,
2013-10-03 05:44:00,60.8,60.2,30.15,North,11,0.0,0.0,98,0.00,CLR,,0.00,WeatherDisplay:10.37,2013-10-03 09:44:00,
2013-10-03 05:46:00,60.7,60.1,30.15,North,11,0.0,0.0,98,0.00,CLR,,0.00,WeatherDisplay:10.37,2013-10-03 09:46:00,
2013-10-03 05:47:00,61.1,60.5,30.15,North,11,0.0,0.0,98,0.00,CLR,,0.00,WeatherDisplay:10.37,2013-10-03 09:47:00,
2013-10-03 05:48:00,61.2,60.6,30.15,North,11,0.0,0.0,98,0.00,CLR,,0.00,WeatherDisplay:10.37,2013-10-03 09:48:00,
2013-10-03 05:49:00,61.0,60.4,30.15,North,11,0.0,0.0,98,0.00,CLR,,0.00,WeatherDisplay:10.37,2013-10-03 09:49:00,
2013-10-03 05:51:00,60.7,60.1,30.15,North,11,0.0,0.0,98,0.00,CLR,,0.00,WeatherDisplay:10.37,2013-10-03 09:51:00,
2013-10-03 05:52:00,61.0,60.4,30.15,North,11,0.0,0.0,98,0.00,CLR,,0.00,WeatherDisplay:10.37,2013-10-03 09:52:00,
2013-10-03 05:53:00,61.3,60.7,30.15,North,11,0.0,0.0,98,0.00,CLR,,0.00,WeatherDisplay:10.37,2013-10-03 09:53:00,
2013-10-03 05:54:00,60.7,60.1,30.15,North,11,0.0,0.0,98,0.00,CLR,,0.00,WeatherDisplay:10.37,2013-10-03 09:54:00,
2013-10-03 05:56:00,61.3,60.7,30.15,North,11,0.0,0.0,98,0.00,CLR,,0.00,WeatherDisplay:10.37,2013-10-03 09:56:00,
2013-10-03 05:57:00,61.1,60.5,30.15,North,11,0.0,0.0,98,0.00,CLR,,0.00,WeatherDisplay:10.37,2013-10-03 09:57:00,
2013-10-03 05:58:00,61.2,60.6,30.15,North,11,0.0,0.0,98,0.00,CLR,,0.00,WeatherDisplay:10.37,2013-10-03 09:58:00,
2013-10-03 05:59:00,61.1,60.5,30.15,North,11,0.0,0.0,98,0.00,CLR,,0.00,WeatherDisplay:10.37,2013-10-03 09:59:00,
2013-10-03 06:01:00,61.0,60.4,30.15,North,11,0.0,0.0,98,0.00,CLR,,0.00,WeatherDisplay:10.37,2013-10-03 10:01:00,
2013-10-03 06:02:00,61.2,60.6,30.15,North,11,0.0,0.0,98,0.00,CLR,,0.00,WeatherDisplay:10.37,2013-10-03 10:02:00,
2013-10-03 06:03:00,60.9,60.3,30.15,North,11,0.0,0.0,98,0.00,CLR,,0.00,WeatherDisplay:10.37,2013-10-03 10:03:00,
2013-10-03 06:05:00,61.3,60.7,30.15,North,11,0.0,0.0,98,0.00,CLR,,0.00,WeatherDisplay:10.37,2013-10-03 10:05:00,
2013-10-03 06:07:00,61.0,60.4,30.15,North,11,0.0,0.0,98,0.00,CLR,,0.00,WeatherDisplay:10.37,2013-10-03 10:07:00,
2013-10-03 06:08:00,61.1,60.5,30.15,North,11,0.0,0.0,98,0.00,CLR,,0.00,WeatherDisplay:10.37,2013-10-03 10:08:00,
2013-10-03 06:10:00,61.1,60.5,30.15,North,11,0.0,0.0,98,0.00,CLR,,0.00,WeatherDisplay:10.37,2013-10-03 10:10:00,
2013-10-03 06:12:00,61.2,60.6,30.15,North,11,0.0,0.0,98,0.00,CLR,,0.00,WeatherDisplay:10.37,2013-10-03 10:12:00,
2013-10-03 06:13:00,61.7,61.1,30.15,North,11,0.0,0.0,98,0.00,CLR,,0.00,WeatherDisplay:10.37,2013-10-03 10:13:00,
2013-10-03 06:14:00,61.7,61.1,30.15,North,11,0.0,0.0,98,0.00,CLR,,0.00,WeatherDisplay:10.37,2013-10-03 10:14:00,
2013-10-03 06:15:00,61.1,60.5,30.15,North,11,0.0,0.0,98,0.00,CLR,,0.00,WeatherDisplay:10.37,2013-10-03 10:15:00,
2013-10-03 06:17:00,61.0,60.4,30.15,North,11,0.0,0.0,98,0.00,CLR,,0.00,WeatherDisplay:10.37,2013-10-03 10:17:00,
2013-10-03 06:18:00,61.8,61.2,30.15,North,11,0.0,0.0,98,0.00,CLR,,0.00,WeatherDisplay:10.37,2013-10-03 10:18:00,
2013-10-03 06:19:00,61.1,60.5,30.15,North,11,0.0,0.0,98,0.00,CLR,,0.00,WeatherDisplay:10.37,2013-10-03 10:19:00,
2013-10-03 06:20:00,61.2,60.6,30.15,North,11,0.0,0.0,98,0.00,CLR,,0.00,WeatherDisplay:10.37,2013-10-03 10:20:00,
2013-10-03 06:21:00,61.8,61.2,30.15,North,11,0.0,0.0,98,0.00,CLR,,0.00,WeatherDisplay:10.37,2013-10-03 10:21:00,
2013-10-03 06:22:00,61.5,61.2,30.15,North,11,0.0,0.0,99,0.00,CLR,,0.00,WeatherDisplay:10.37,2013-10-03 10:22:00,
2013-10-03 06:24:00,61.5,60.9,30.15,North,11,0.0,0.0,98,0.00,CLR,,0.00,WeatherDisplay:10.37,2013-10-03 10:24:00,
2013-10-03 06:26:00,61.1,60.5,30.15,West,267,1.8,3.5,98,0.00,CLR,,0.00,WeatherDisplay:10.37,2013-10-03 10:26:00,
2013-10-03 06:27:00,61.3,60.7,30.15,West,267,0.0,3.5,98,0.00,CLR,,0.00,WeatherDisplay:10.37,2013-10-03 10:27:00,
2013-10-03 06:28:00,61.5,60.9,30.15,West,267,0.0,0.0,98,0.00,CLR,,0.00,WeatherDisplay:10.37,2013-10-03 10:28:00,
2013-10-03 06:29:00,61.3,60.7,30.15,West,267,0.0,0.0,98,0.00,CLR,,0.00,WeatherDisplay:10.37,2013-10-03 10:29:00,
2013-10-03 06:31:00,61.4,60.8,30.15,West,267,0.0,0.0,98,0.00,CLR,,0.00,WeatherDisplay:10.37,2013-10-03 10:31:00,
2013-10-03 06:32:00,60.7,60.1,30.15,West,267,0.0,0.0,98,0.00,CLR,,0.00,WeatherDisplay:10.37,2013-10-03 10:32:00,
2013-10-03 06:33:00,61.1,60.5,30.15,West,267,0.0,0.0,98,0.00,CLR,,0.00,WeatherDisplay:10.37,2013-10-03 10:33:00,
2013-10-03 06:34:00,60.6,60.0,30.15,West,267,0.0,0.0,98,0.00,CLR,,0.00,WeatherDisplay:10.37,2013-10-03 10:34:00,
2013-10-03 06:36:00,60.8,60.2,30.15,West,267,0.0,0.0,98,0.00,CLR,,0.00,WeatherDisplay:10.37,2013-10-03 10:36:00,
2013-10-03 06:37:00,60.6,60.0,30.15,West,267,0.0,0.0,98,0.00,CLR,,0.00,WeatherDisplay:10.37,2013-10-03 10:37:00,
2013-10-03 06:38:00,60.5,59.9,30.16,West,267,0.0,0.0,98,0.00,CLR,,0.00,WeatherDisplay:10.37,2013-10-03 10:38:00,
2013-10-03 06:39:00,60.7,60.1,30.16,West,267,0.0,0.0,98,0.00,CLR,,0.00,WeatherDisplay:10.37,2013-10-03 10:39:00,
2013-10-03 06:41:00,60.8,60.2,30.16,West,267,0.0,0.0,98,0.00,CLR,,0.00,WeatherDisplay:10.37,2013-10-03 10:41:00,
2013-10-03 06:42:00,60.6,60.0,30.16,West,267,0.0,0.0,98,0.00,CLR,,0.00,WeatherDisplay:10.37,2013-10-03 10:42:00,
2013-10-03 06:44:00,60.3,59.7,30.16,West,267,0.0,0.0,98,0.00,CLR,,0.00,WeatherDisplay:10.37,2013-10-03 10:44:00,
2013-10-03 06:45:00,60.5,59.9,30.16,West,267,0.0,0.0,98,0.00,CLR,,0.00,WeatherDisplay:10.37,2013-10-03 10:45:00,
2013-10-03 06:46:00,60.7,60.1,30.16,West,267,0.0,0.0,98,0.00,CLR,,0.00,WeatherDisplay:10.37,2013-10-03 10:46:00,
2013-10-03 06:47:00,60.1,59.5,30.16,West,267,0.0,0.0,98,0.00,CLR,,0.00,WeatherDisplay:10.37,2013-10-03 10:47:00,
2013-10-03 06:49:00,60.8,60.2,30.16,West,267,0.0,0.0,98,0.00,CLR,,0.00,WeatherDisplay:10.37,2013-10-03 10:49:00,
2013-10-03 06:50:00,60.5,60.2,30.16,West,267,0.0,0.0,99,0.00,CLR,,0.00,WeatherDisplay:10.37,2013-10-03 10:50:00,
2013-10-03 06:51:00,60.4,60.1,30.16,West,267,0.0,0.0,99,0.00,CLR,,0.00,WeatherDisplay:10.37,2013-10-03 10:51:00,
2013-10-03 06:52:00,60.6,60.3,30.16,West,267,0.0,0.0,99,0.00,CLR,,0.00,WeatherDisplay:10.37,2013-10-03 10:52:00,
2013-10-03 06:54:00,60.1,59.8,30.16,West,267,0.0,0.0,99,0.00,CLR,,0.00,WeatherDisplay:10.37,2013-10-03 10:54:00,
2013-10-03 06:55:00,60.8,60.5,30.16,West,267,0.0,0.0,99,0.00,CLR,,0.00,WeatherDisplay:10.37,2013-10-03 10:55:00,
2013-10-03 06:57:00,60.1,59.8,30.16,West,267,0.0,0.0,99,0.00,CLR,,0.00,WeatherDisplay:10.37,2013-10-03 10:57:00,
2013-10-03 07:00:00,60.2,59.9,30.16,NNE,18,0.0,0.0,99,0.00,CLR,,0.00,WeatherDisplay:10.37,2013-10-03 11:00:00,
2013-10-03 07:02:00,60.5,60.5,30.16,NNE,18,0.0,0.0,100,0.00,CLR,,0.00,WeatherDisplay:10.37,2013-10-03 11:02:00,
2013-10-03 07:05:00,60.4,60.4,30.16,NNE,18,0.0,0.0,100,0.00,CLR,,0.00,WeatherDisplay:10.37,2013-10-03 11:05:00,
2013-10-03 07:07:00,60.5,60.5,30.16,NNE,18,0.0,0.0,100,0.00,CLR,,0.00,WeatherDisplay:10.37,2013-10-03 11:07:00,
2013-10-03 07:10:00,60.2,60.2,30.16,NNE,18,0.0,0.0,100,0.00,CLR,,0.00,WeatherDisplay:10.37,2013-10-03 11:10:00,
2013-10-03 07:11:00,60.5,60.5,30.16,NNE,18,0.0,0.0,100,0.00,CLR,,0.00,WeatherDisplay:10.37,2013-10-03 11:11:00,
2013-10-03 07:12:00,60.6,60.6,30.16,NNE,18,0.0,0.0,100,0.00,CLR,,0.00,WeatherDisplay:10.37,2013-10-03 11:12:00,
2013-10-03 07:13:00,60.6,60.6,30.16,NNE,18,0.0,0.0,100,0.00,CLR,,0.00,WeatherDisplay:10.37,2013-10-03 11:13:00,
2013-10-03 07:15:00,60.9,60.9,30.16,NNE,18,0.0,0.0,100,0.00,CLR,,0.00,WeatherDisplay:10.37,2013-10-03 11:15:00,
2013-10-03 07:16:00,60.2,60.2,30.16,NNE,18,0.0,0.0,100,0.00,CLR,,0.00,WeatherDisplay:10.37,2013-10-03 11:16:00,
2013-10-03 07:17:00,60.7,60.7,30.16,NNE,18,0.0,0.0,100,0.00,CLR,,0.00,WeatherDisplay:10.37,2013-10-03 11:17:00,
2013-10-03 07:19:00,60.7,60.7,30.16,NNE,18,0.0,0.0,100,0.00,CLR,,0.00,WeatherDisplay:10.37,2013-10-03 11:19:00,
2013-10-03 07:20:00,60.9,60.9,30.16,NNE,18,0.0,0.0,100,0.00,CLR,,0.00,WeatherDisplay:10.37,2013-10-03 11:20:00,
2013-10-03 07:21:00,61.0,61.0,30.16,NNE,18,0.0,0.0,100,0.00,CLR,,0.00,WeatherDisplay:10.37,2013-10-03 11:21:00,
2013-10-03 07:22:00,60.4,60.4,30.16,NNE,18,0.0,0.0,100,0.00,CLR,,0.00,WeatherDisplay:10.37,2013-10-03 11:22:00,
2013-10-03 07:24:00,61.0,61.0,30.17,NNE,18,0.0,0.0,100,0.00,CLR,,0.00,WeatherDisplay:10.37,2013-10-03 11:24:00,
2013-10-03 07:25:00,60.4,60.4,30.17,NNE,18,0.0,0.0,100,0.00,CLR,,0.00,WeatherDisplay:10.37,2013-10-03 11:25:00,
2013-10-03 07:26:00,60.7,60.7,30.17,NNE,18,0.0,0.0,100,0.00,CLR,,0.00,WeatherDisplay:10.37,2013-10-03 11:26:00,
2013-10-03 07:27:00,60.4,60.4,30.17,NNE,18,0.0,0.0,100,0.00,CLR,,0.00,WeatherDisplay:10.37,2013-10-03 11:27:00,
2013-10-03 07:29:00,61.1,61.1,30.17,NNE,18,0.0,0.0,100,0.00,CLR,,0.00,WeatherDisplay:10.37,2013-10-03 11:29:00,
2013-10-03 07:30:00,61.1,61.1,30.17,NNE,18,0.0,0.0,100,0.00,CLR,,0.00,WeatherDisplay:10.37,2013-10-03 11:30:00,
2013-10-03 07:31:00,61.1,61.1,30.17,NNE,18,0.0,0.0,100,0.00,CLR,,0.00,WeatherDisplay:10.37,2013-10-03 11:31:00,
2013-10-03 07:32:00,60.9,60.9,30.17,NNE,18,0.0,0.0,100,0.00,CLR,,0.00,WeatherDisplay:10.37,2013-10-03 11:32:00,
2013-10-03 07:35:00,61.0,61.0,30.17,NNE,18,0.0,0.0,100,0.00,CLR,,0.00,WeatherDisplay:10.37,2013-10-03 11:35:00,
2013-10-03 07:36:00,61.1,61.1,30.17,NNE,18,0.0,0.0,100,0.00,CLR,,0.00,WeatherDisplay:10.37,2013-10-03 11:36:00,
2013-10-03 07:37:00,61.2,61.2,30.17,NNE,18,0.0,0.0,100,0.00,CLR,,0.00,WeatherDisplay:10.37,2013-10-03 11:37:00,
2013-10-03 07:39:00,61.2,61.2,30.17,NNE,18,0.0,0.0,100,0.00,CLR,,0.00,WeatherDisplay:10.37,2013-10-03 11:39:00,
2013-10-03 07:40:00,61.3,61.3,30.17,NNE,18,0.0,0.0,100,0.00,CLR,,0.00,WeatherDisplay:10.37,2013-10-03 11:40:00,
2013-10-03 07:41:00,60.8,60.8,30.17,NNE,18,0.0,0.0,100,0.00,CLR,,0.00,WeatherDisplay:10.37,2013-10-03 11:41:00,
2013-10-03 07:42:00,61.1,61.1,30.17,NNE,18,0.0,0.0,100,0.00,CLR,,0.00,WeatherDisplay:10.37,2013-10-03 11:42:00,
2013-10-03 07:44:00,61.4,61.4,30.17,NNE,18,0.0,0.0,100,0.01,RA,,0.01,WeatherDisplay:10.37,2013-10-03 11:44:00,
2013-10-03 07:46:00,61.5,61.5,30.17,NNE,18,0.0,0.0,100,0.01,RA,,0.01,WeatherDisplay:10.37,2013-10-03 11:46:00,
2013-10-03 07:47:00,61.3,61.3,30.17,NNE,18,0.0,0.0,100,0.01,RA,,0.01,WeatherDisplay:10.37,2013-10-03 11:47:00,
2013-10-03 07:50:00,61.1,61.1,30.17,NNE,18,0.0,0.0,100,0.01,RA,,0.01,WeatherDisplay:10.37,2013-10-03 11:50:00,
2013-10-03 07:52:00,61.7,61.7,30.17,NNE,18,0.0,0.0,100,0.01,RA,,0.01,WeatherDisplay:10.37,2013-10-03 11:52:00,
2013-10-03 07:55:00,61.7,61.7,30.17,NNE,18,0.0,0.0,100,0.01,CLR,,0.01,WeatherDisplay:10.37,2013-10-03 11:55:00,
2013-10-03 07:57:00,61.3,61.3,30.18,NNE,18,0.0,0.0,100,0.01,CLR,,0.01,WeatherDisplay:10.37,2013-10-03 11:57:00,
2013-10-03 07:58:00,61.5,61.5,30.18,NNE,18,0.0,0.0,100,0.01,CLR,,0.01,WeatherDisplay:10.37,2013-10-03 11:58:00,
2013-10-03 08:00:00,61.4,61.4,30.18,NNE,18,0.0,0.0,100,0.01,CLR,,0.01,WeatherDisplay:10.37,2013-10-03 12:00:00,
2013-10-03 08:02:00,61.7,61.7,30.18,NNE,18,0.0,0.0,100,0.01,CLR,,0.01,WeatherDisplay:10.37,2013-10-03 12:02:00,
2013-10-03 08:03:00,61.6,61.6,30.18,NNE,18,0.0,0.0,100,0.01,CLR,,0.01,WeatherDisplay:10.37,2013-10-03 12:03:00,
2013-10-03 08:05:00,61.5,61.5,30.18,NNE,18,0.0,0.0,100,0.01,CLR,,0.01,WeatherDisplay:10.37,2013-10-03 12:05:00,
2013-10-03 08:07:00,62.2,62.2,30.18,NNE,18,0.0,0.0,100,0.01,CLR,,0.01,WeatherDisplay:10.37,2013-10-03 12:07:00,
2013-10-03 08:08:00,61.9,61.9,30.18,NNE,18,0.0,0.0,100,0.01,CLR,,0.01,WeatherDisplay:10.37,2013-10-03 12:08:00,
2013-10-03 08:10:00,62.0,62.0,30.18,NNE,18,0.0,0.0,100,0.01,CLR,,0.01,WeatherDisplay:10.37,2013-10-03 12:10:00,
2013-10-03 08:11:00,61.7,61.7,30.18,NNE,18,0.0,0.0,100,0.01,CLR,,0.01,WeatherDisplay:10.37,2013-10-03 12:11:00,
2013-10-03 08:12:00,61.9,61.9,30.18,NNE,18,0.0,0.0,100,0.01,CLR,,0.01,WeatherDisplay:10.37,2013-10-03 12:12:00,
2013-10-03 08:13:00,62.4,62.4,30.18,NNE,18,0.0,0.0,100,0.01,CLR,,0.01,WeatherDisplay:10.37,2013-10-03 12:13:00,
2013-10-03 08:15:00,62.5,62.5,30.18,NNE,18,0.0,0.0,100,0.01,CLR,,0.01,WeatherDisplay:10.37,2013-10-03 12:15:00,
2013-10-03 08:16:00,62.6,62.6,30.18,NNE,18,0.0,0.0,100,0.01,CLR,,0.01,WeatherDisplay:10.37,2013-10-03 12:16:00,
2013-10-03 08:18:00,62.4,62.1,30.18,NNE,18,0.0,0.0,99,0.01,CLR,,0.01,WeatherDisplay:10.37,2013-10-03 12:18:00,
2013-10-03 08:19:00,62.5,62.2,30.18,NNE,18,0.0,0.0,99,0.01,CLR,,0.01,WeatherDisplay:10.37,2013-10-03 12:19:00,
2013-10-03 08:21:00,62.4,62.1,30.18,NNE,18,0.0,0.0,99,0.01,CLR,,0.01,WeatherDisplay:10.37,2013-10-03 12:21:00,
2013-10-03 08:23:00,62.6,62.3,30.18,NNE,18,0.0,0.0,99,0.01,CLR,,0.01,WeatherDisplay:10.37,2013-10-03 12:23:00,
2013-10-03 08:24:00,62.9,62.6,30.18,NNE,18,0.0,0.0,99,0.01,CLR,,0.01,WeatherDisplay:10.37,2013-10-03 12:24:00,
2013-10-03 08:26:00,62.7,62.4,30.18,NNE,18,0.0,0.0,99,0.01,CLR,,0.01,WeatherDisplay:10.37,2013-10-03 12:26:00,
2013-10-03 08:27:00,62.8,62.5,30.18,NNE,18,0.0,0.0,99,0.01,CLR,,0.01,WeatherDisplay:10.37,2013-10-03 12:27:00,
2013-10-03 08:28:00,62.8,62.5,30.18,NNE,18,0.0,0.0,99,0.01,CLR,,0.01,WeatherDisplay:10.37,2013-10-03 12:28:00,
2013-10-03 08:29:00,62.8,62.5,30.18,NNE,18,0.0,0.0,99,0.01,CLR,,0.01,WeatherDisplay:10.37,2013-10-03 12:29:00,
2013-10-03 08:30:00,62.9,62.3,30.18,NNE,18,0.0,0.0,98,0.01,CLR,,0.01,WeatherDisplay:10.37,2013-10-03 12:30:00,
2013-10-03 08:32:00,62.9,62.6,30.18,NNE,18,0.0,0.0,99,0.01,CLR,,0.01,WeatherDisplay:10.37,2013-10-03 12:32:00,
2013-10-03 08:33:00,63.5,62.9,30.18,NNE,18,0.0,0.0,98,0.01,CLR,,0.01,WeatherDisplay:10.37,2013-10-03 12:33:00,
2013-10-03 08:34:00,63.5,62.9,30.18,West,281,2.4,4.8,98,0.01,CLR,,0.01,WeatherDisplay:10.37,2013-10-03 12:34:00,
2013-10-03 08:35:00,63.3,62.7,30.18,WSW,247,3.3,5.8,98,0.01,CLR,,0.01,WeatherDisplay:10.37,2013-10-03 12:35:00,
2013-10-03 08:37:00,63.3,62.7,30.19,WNW,282,0.0,0.0,98,0.01,CLR,,0.01,WeatherDisplay:10.37,2013-10-03 12:37:00,
2013-10-03 08:38:00,63.3,62.7,30.19,WNW,282,0.0,0.0,98,0.01,CLR,,0.01,WeatherDisplay:10.37,2013-10-03 12:38:00,
2013-10-03 08:39:00,63.5,62.9,30.19,WNW,282,0.0,0.0,98,0.01,CLR,,0.01,WeatherDisplay:10.37,2013-10-03 12:39:00,
2013-10-03 08:40:00,63.7,63.1,30.19,WNW,282,0.0,0.0,98,0.01,CLR,,0.01,WeatherDisplay:10.37,2013-10-03 12:40:00,
2013-10-03 08:43:00,63.9,63.0,30.19,WNW,282,0.0,0.0,97,0.00,CLR,,0.01,WeatherDisplay:10.37,2013-10-03 12:43:00,
2013-10-03 08:45:00,63.4,62.5,30.19,WNW,282,0.0,0.0,97,0.00,CLR,,0.01,WeatherDisplay:10.37,2013-10-03 12:45:00,
2013-10-03 08:48:00,63.8,62.9,30.19,WNW,282,0.0,0.0,97,0.00,CLR,,0.01,WeatherDisplay:10.37,2013-10-03 12:48:00,
2013-10-03 08:49:00,63.8,62.9,30.19,WNW,282,0.0,0.0,97,0.00,CLR,,0.01,WeatherDisplay:10.37,2013-10-03 12:49:00,
2013-10-03 08:50:00,63.8,62.9,30.19,WNW,282,0.0,0.0,97,0.00,CLR,,0.01,WeatherDisplay:10.37,2013-10-03 12:50:00,
2013-10-03 08:53:00,64.0,63.1,30.19,WNW,282,0.0,0.0,97,0.00,CLR,,0.01,WeatherDisplay:10.37,2013-10-03 12:53:00,
2013-10-03 08:54:00,63.7,62.8,30.19,WNW,282,0.0,0.0,97,0.00,CLR,,0.01,WeatherDisplay:10.37,2013-10-03 12:54:00,
2013-10-03 08:55:00,63.7,62.8,30.19,WNW,282,0.0,0.0,97,0.00,CLR,,0.01,WeatherDisplay:10.37,2013-10-03 12:55:00,
2013-10-03 08:56:00,63.7,62.8,30.19,WNW,282,0.0,0.0,97,0.00,CLR,,0.01,WeatherDisplay:10.37,2013-10-03 12:56:00,
2013-10-03 08:58:00,63.8,62.9,30.19,WNW,282,0.0,0.0,97,0.00,CLR,,0.01,WeatherDisplay:10.37,2013-10-03 12:58:00,
2013-10-03 08:59:00,63.9,63.0,30.19,WNW,282,0.0,0.0,97,0.00,CLR,,0.01,WeatherDisplay:10.37,2013-10-03 12:59:00,
2013-10-03 09:00:00,64.0,63.1,30.19,WNW,282,0.0,0.0,97,0.00,CLR,,0.01,WeatherDisplay:10.37,2013-10-03 13:00:00,
2013-10-03 09:01:00,63.9,63.0,30.19,WNW,282,0.0,0.0,97,0.00,CLR,,0.01,WeatherDisplay:10.37,2013-10-03 13:01:00,
2013-10-03 09:03:00,64.0,63.1,30.18,WNW,282,0.0,0.0,97,0.00,CLR,,0.01,WeatherDisplay:10.37,2013-10-03 13:03:00,
2013-10-03 09:04:00,63.6,62.7,30.18,WNW,282,0.0,0.0,97,0.00,CLR,,0.01,WeatherDisplay:10.37,2013-10-03 13:04:00,
2013-10-03 09:05:00,64.2,63.3,30.18,WNW,282,0.0,0.0,97,0.00,CLR,,0.01,WeatherDisplay:10.37,2013-10-03 13:05:00,
2013-10-03 09:06:00,64.2,63.3,30.18,WNW,282,0.0,0.0,97,0.00,CLR,,0.01,WeatherDisplay:10.37,2013-10-03 13:06:00,
2013-10-03 09:09:00,64.5,63.3,30.19,WNW,282,0.0,0.0,96,0.00,CLR,,0.01,WeatherDisplay:10.37,2013-10-03 13:09:00,
2013-10-03 09:10:00,64.3,63.1,30.19,WNW,282,0.0,0.0,96,0.00,CLR,,0.01,WeatherDisplay:10.37,2013-10-03 13:10:00,
2013-10-03 09:11:00,64.7,63.5,30.19,WNW,282,0.0,0.0,96,0.00,CLR,,0.01,WeatherDisplay:10.37,2013-10-03 13:11:00,
2013-10-03 09:14:00,65.1,63.9,30.19,WNW,282,0.0,0.0,96,0.00,CLR,,0.01,WeatherDisplay:10.37,2013-10-03 13:14:00,
2013-10-03 09:15:00,64.8,63.6,30.19,WNW,282,0.0,0.0,96,0.00,CLR,,0.01,WeatherDisplay:10.37,2013-10-03 13:15:00,
2013-10-03 09:16:00,64.8,63.3,30.19,WNW,282,0.0,0.0,95,0.00,CLR,,0.01,WeatherDisplay:10.37,2013-10-03 13:16:00,
2013-10-03 09:17:00,65.0,63.5,30.19,WNW,282,0.0,0.0,95,0.00,CLR,,0.01,WeatherDisplay:10.37,2013-10-03 13:17:00,
2013-10-03 09:19:00,65.1,63.6,30.19,WNW,282,0.0,0.0,95,0.00,CLR,,0.01,WeatherDisplay:10.37,2013-10-03 13:19:00,
2013-10-03 09:20:00,65.0,63.5,30.19,WNW,282,0.0,0.0,95,0.00,CLR,,0.01,WeatherDisplay:10.37,2013-10-03 13:20:00,
2013-10-03 09:21:00,65.1,63.6,30.19,WNW,282,0.0,0.0,95,0.00,CLR,,0.01,WeatherDisplay:10.37,2013-10-03 13:21:00,
2013-10-03 09:22:00,65.2,63.4,30.19,NW,304,3.2,4.4,94,0.00,CLR,,0.01,WeatherDisplay:10.37,2013-10-03 13:22:00,
2013-10-03 09:24:00,65.1,63.3,30.19,NW,323,0.0,4.6,94,0.00,CLR,,0.01,WeatherDisplay:10.37,2013-10-03 13:24:00,
2013-10-03 09:25:00,65.4,63.6,30.19,NW,323,0.0,0.0,94,0.00,CLR,,0.01,WeatherDisplay:10.37,2013-10-03 13:25:00,
2013-10-03 09:26:00,65.3,63.5,30.19,NW,323,0.0,0.0,94,0.00,CLR,,0.01,WeatherDisplay:10.37,2013-10-03 13:26:00,
2013-10-03 09:28:00,65.3,63.5,30.19,NW,323,0.0,0.0,94,0.00,CLR,,0.01,WeatherDisplay:10.37,2013-10-03 13:28:00,
2013-10-03 09:30:00,65.8,64.0,30.19,NW,323,0.0,0.0,94,0.00,CLR,,0.01,WeatherDisplay:10.37,2013-10-03 13:30:00,
2013-10-03 09:31:00,65.6,63.8,30.19,NW,323,0.0,0.0,94,0.00,CLR,,0.01,WeatherDisplay:10.37,2013-10-03 13:31:00,
2013-10-03 09:33:00,65.6,63.8,30.19,NW,323,0.0,0.0,94,0.00,CLR,,0.01,WeatherDisplay:10.37,2013-10-03 13:33:00,
2013-10-03 09:35:00,65.8,63.7,30.19,NW,323,0.0,0.0,93,0.00,CLR,,0.01,WeatherDisplay:10.37,2013-10-03 13:35:00,
2013-10-03 09:36:00,66.0,63.9,30.19,NW,323,0.0,0.0,93,0.00,CLR,,0.01,WeatherDisplay:10.37,2013-10-03 13:36:00,
2013-10-03 09:39:00,66.3,64.2,30.19,NW,323,0.0,0.0,93,0.00,CLR,,0.01,WeatherDisplay:10.37,2013-10-03 13:39:00,
2013-10-03 09:40:00,66.6,64.2,30.19,NW,318,4.0,5.8,92,0.00,CLR,,0.01,WeatherDisplay:10.37,2013-10-03 13:40:00,
2013-10-03 09:41:00,66.3,63.9,30.19,WNW,288,2.5,5.8,92,0.00,CLR,,0.01,WeatherDisplay:10.37,2013-10-03 13:41:00,
2013-10-03 09:42:00,66.7,64.3,30.19,NW,323,3.9,5.8,92,0.00,CLR,,0.01,WeatherDisplay:10.37,2013-10-03 13:42:00,
2013-10-03 09:45:00,66.9,64.5,30.19,NW,304,0.8,4.6,92,0.00,CLR,,0.01,WeatherDisplay:10.37,2013-10-03 13:45:00,
2013-10-03 09:46:00,66.8,64.4,30.19,NW,304,0.0,4.6,92,0.00,CLR,,0.01,WeatherDisplay:10.37,2013-10-03 13:46:00,
2013-10-03 09:47:00,66.5,63.8,30.19,NW,304,0.0,0.0,91,0.00,CLR,,0.01,WeatherDisplay:10.37,2013-10-03 13:47:00,
2013-10-03 09:51:00,66.9,63.9,30.19,NNW,330,2.6,5.2,90,0.00,CLR,,0.01,WeatherDisplay:10.37,2013-10-03 13:51:00,
2013-10-03 09:52:00,66.8,63.8,30.19,NNW,347,3.5,5.8,90,0.00,CLR,,0.01,WeatherDisplay:10.37,2013-10-03 13:52:00,
2013-10-03 09:56:00,67.1,64.1,30.19,NW,325,0.0,0.0,90,0.00,CLR,,0.01,WeatherDisplay:10.37,2013-10-03 13:56:00,
2013-10-03 09:57:00,67.0,64.0,30.19,NW,325,0.0,0.0,90,0.00,CLR,,0.01,WeatherDisplay:10.37,2013-10-03 13:57:00,
2013-10-03 10:01:00,67.2,63.8,30.19,NNE,17,0.5,6.9,89,0.00,CLR,,0.01,WeatherDisplay:10.37,2013-10-03 14:01:00,
2013-10-03 10:02:00,67.3,63.9,30.19,NNE,17,0.1,3.5,89,0.00,CLR,,0.01,WeatherDisplay:10.37,2013-10-03 14:02:00,
2013-10-03 10:06:00,67.7,64.0,30.19,WNW,284,0.4,3.5,88,0.00,CLR,,0.01,WeatherDisplay:10.37,2013-10-03 14:06:00,
2013-10-03 10:07:00,67.7,64.0,30.19,WNW,284,0.0,0.0,88,0.00,CLR,,0.01,WeatherDisplay:10.37,2013-10-03 14:07:00,
2013-10-03 10:08:00,67.8,64.4,30.19,WNW,284,0.0,0.0,89,0.00,CLR,,0.01,WeatherDisplay:10.37,2013-10-03 14:08:00,
2013-10-03 10:11:00,67.4,63.7,30.19,WNW,294,0.0,0.0,88,0.00,CLR,,0.01,WeatherDisplay:10.37,2013-10-03 14:11:00,
2013-10-03 10:12:00,67.6,63.9,30.19,WNW,294,0.0,0.0,88,0.00,CLR,,0.01,WeatherDisplay:10.37,2013-10-03 14:12:00,
2013-10-03 10:13:00,67.7,64.0,30.19,WNW,294,0.0,0.0,88,0.00,CLR,,0.01,WeatherDisplay:10.37,2013-10-03 14:13:00,
2013-10-03 10:17:00,67.7,64.0,30.19,WNW,294,0.0,0.0,88,0.00,CLR,,0.01,WeatherDisplay:10.37,2013-10-03 14:17:00,
2013-10-03 10:18:00,67.8,64.1,30.19,WNW,294,0.0,0.0,88,0.00,CLR,,0.01,WeatherDisplay:10.37,2013-10-03 14:18:00,
2013-10-03 10:22:00,68.4,64.4,30.19,WNW,294,0.0,0.0,87,0.00,CLR,,0.01,WeatherDisplay:10.37,2013-10-03 14:22:00,
2013-10-03 10:23:00,68.2,64.2,30.19,WNW,294,0.0,0.0,87,0.00,CLR,,0.01,WeatherDisplay:10.37,2013-10-03 14:23:00,
2013-10-03 10:27:00,68.9,64.2,30.19,WNW,294,0.0,0.0,85,0.00,CLR,,0.01,WeatherDisplay:10.37,2013-10-03 14:27:00,
2013-10-03 10:28:00,68.7,64.0,30.19,WNW,294,0.0,0.0,85,0.00,CLR,,0.01,WeatherDisplay:10.37,2013-10-03 14:28:00,
2013-10-03 10:29:00,68.8,64.1,30.19,North,360,0.7,0.0,85,0.00,CLR,,0.01,WeatherDisplay:10.37,2013-10-03 14:29:00,
2013-10-03 10:32:00,69.4,64.4,30.19,West,272,2.1,4.7,84,0.00,CLR,,0.01,WeatherDisplay:10.37,2013-10-03 14:32:00,
2013-10-03 10:33:00,69.1,64.1,30.19,SW,216,1.8,4.6,84,0.00,CLR,,0.01,WeatherDisplay:10.37,2013-10-03 14:33:00,
2013-10-03 10:34:00,69.5,64.1,30.19,WSW,240,0.1,4.6,83,0.00,CLR,,0.01,WeatherDisplay:10.37,2013-10-03 14:34:00,
2013-10-03 10:38:00,69.6,63.9,30.19,WNW,288,0.0,0.0,82,0.00,CLR,,0.01,WeatherDisplay:10.37,2013-10-03 14:38:00,
2013-10-03 10:39:00,70.1,64.3,30.19,WNW,288,0.0,0.0,82,0.00,CLR,,0.01,WeatherDisplay:10.37,2013-10-03 14:39:00,
2013-10-03 10:43:00,70.1,64.0,30.19,NW,304,0.7,4.2,81,0.00,CLR,,0.01,WeatherDisplay:10.37,2013-10-03 14:43:00,
2013-10-03 10:44:00,69.9,63.4,30.19,West,268,2.1,3.2,80,0.00,CLR,,0.01,WeatherDisplay:10.37,2013-10-03 14:44:00,
2013-10-03 10:45:00,70.1,63.3,30.19,WSW,240,0.5,4.6,79,0.00,CLR,,0.01,WeatherDisplay:10.37,2013-10-03 14:45:00,
2013-10-03 10:48:00,70.1,63.6,30.19,West,264,2.5,6.7,80,0.00,CLR,,0.01,WeatherDisplay:10.37,2013-10-03 14:48:00,
2013-10-03 10:49:00,70.1,63.6,30.19,West,281,5.0,5.0,80,0.00,CLR,,0.01,WeatherDisplay:10.37,2013-10-03 14:49:00,
2013-10-03 10:50:00,70.1,63.6,30.19,WNW,291,0.9,5.8,80,0.00,CLR,,0.01,WeatherDisplay:10.37,2013-10-03 14:50:00,
2013-10-03 10:53:00,70.6,64.1,30.19,WNW,294,0.0,5.8,80,0.00,CLR,,0.01,WeatherDisplay:10.37,2013-10-03 14:53:00,
2013-10-03 10:54:00,70.5,64.0,30.19,WNW,294,0.4,4.6,80,0.00,CLR,,0.01,WeatherDisplay:10.37,2013-10-03 14:54:00,
2013-10-03 10:55:00,70.9,63.7,30.19,WNW,294,0.0,4.6,78,0.00,CLR,,0.01,WeatherDisplay:10.37,2013-10-03 14:55:00,
2013-10-03 10:56:00,70.6,63.8,30.19,WNW,294,0.0,0.0,79,0.00,CLR,,0.01,WeatherDisplay:10.37,2013-10-03 14:56:00,
2013-10-03 10:59:00,70.7,63.9,30.19,NW,318,0.0,0.0,79,0.00,CLR,,0.01,WeatherDisplay:10.37,2013-10-03 14:59:00,
2013-10-03 11:01:00,71.2,64.0,30.19,NW,306,3.0,6.0,78,0.00,CLR,,0.01,WeatherDisplay:10.37,2013-10-03 15:01:00,
2013-10-03 11:04:00,71.4,64.2,30.19,West,274,0.0,0.0,78,0.00,CLR,,0.01,WeatherDisplay:10.37,2013-10-03 15:04:00,
2013-10-03 11:06:00,71.1,63.5,30.19,NNW,344,1.0,4.6,77,0.00,CLR,,0.01,WeatherDisplay:10.37,2013-10-03 15:06:00,
2013-10-03 11:07:00,71.2,64.0,30.19,WNW,298,0.3,4.5,78,0.00,CLR,,0.01,WeatherDisplay:10.37,2013-10-03 15:07:00,
2013-10-03 11:09:00,71.3,63.3,30.19,NW,305,1.0,4.6,76,0.00,CLR,,0.01,WeatherDisplay:10.37,2013-10-03 15:09:00,
2013-10-03 11:10:00,71.4,63.4,30.19,NNW,340,0.0,4.6,76,0.00,CLR,,0.01,WeatherDisplay:10.37,2013-10-03 15:10:00,
2013-10-03 11:11:00,71.6,63.3,30.19,NW,315,2.0,4.6,75,0.00,CLR,,0.01,WeatherDisplay:10.37,2013-10-03 15:11:00,
2013-10-03 11:12:00,71.4,63.1,30.19,WNW,296,3.7,5.8,75,0.00,CLR,,0.01,WeatherDisplay:10.37,2013-10-03 15:12:00,
2013-10-03 11:14:00,71.8,63.8,30.19,NNW,339,0.9,3.5,76,0.00,CLR,,0.01,WeatherDisplay:10.37,2013-10-03 15:14:00,
2013-10-03 11:15:00,71.8,63.4,30.19,NNW,339,0.3,3.1,75,0.00,CLR,,0.01,WeatherDisplay:10.37,2013-10-03 15:15:00,
2013-10-03 11:16:00,71.7,63.0,30.19,West,281,4.2,6.9,74,0.00,CLR,,0.01,WeatherDisplay:10.37,2013-10-03 15:16:00,
2013-10-03 11:17:00,71.7,63.0,30.19,West,278,4.0,8.1,74,0.00,CLR,,0.01,WeatherDisplay:10.37,2013-10-03 15:17:00,
2013-10-03 11:19:00,72.0,63.3,30.19,NW,318,2.9,6.1,74,0.00,CLR,,0.01,WeatherDisplay:10.37,2013-10-03 15:19:00,
2013-10-03 11:20:00,72.0,62.9,30.19,WNW,291,4.7,6.9,73,0.00,CLR,,0.01,WeatherDisplay:10.37,2013-10-03 15:20:00,
2013-10-03 11:21:00,72.3,63.2,30.19,NW,306,4.9,6.9,73,0.00,CLR,,0.01,WeatherDisplay:10.37,2013-10-03 15:21:00,
2013-10-03 11:22:00,72.3,63.2,30.19,NNW,332,2.5,6.9,73,0.00,CLR,,0.01,WeatherDisplay:10.37,2013-10-03 15:22:00,
2013-10-03 11:24:00,72.1,63.4,30.19,WNW,287,4.6,6.9,74,0.00,CLR,,0.01,WeatherDisplay:10.37,2013-10-03 15:24:00,
2013-10-03 11:25:00,72.3,63.2,30.19,NW,304,4.2,6.9,73,0.00,CLR,,0.01,WeatherDisplay:10.37,2013-10-03 15:25:00,
2013-10-03 11:26:00,72.5,63.4,30.19,NW,326,0.9,4.6,73,0.00,CLR,,0.01,WeatherDisplay:10.37,2013-10-03 15:26:00,
2013-10-03 11:28:00,72.6,63.1,30.19,NW,309,6.1,6.9,72,0.00,CLR,,0.01,WeatherDisplay:10.37,2013-10-03 15:28:00,
2013-10-03 11:29:00,72.6,63.1,30.19,West,275,3.0,6.9,72,0.00,CLR,,0.01,WeatherDisplay:10.37,2013-10-03 15:29:00,
2013-10-03 11:30:00,72.7,63.1,30.19,NNW,328,4.1,5.8,72,0.00,CLR,,0.01,WeatherDisplay:10.37,2013-10-03 15:30:00,
2013-10-03 11:31:00,72.6,63.1,30.19,NNW,328,1.6,5.8,72,0.00,CLR,,0.01,WeatherDisplay:10.37,2013-10-03 15:31:00,
2013-10-03 11:32:00,72.6,63.1,30.18,NNW,328,0.0,0.0,72,0.00,CLR,,0.01,WeatherDisplay:10.37,2013-10-03 15:32:00,
2013-10-03 11:34:00,72.9,63.3,30.18,NNW,328,0.0,0.0,72,0.00,CLR,,0.01,WeatherDisplay:10.37,2013-10-03 15:34:00,
2013-10-03 11:35:00,73.0,63.4,30.18,NNW,328,0.0,2.3,72,0.00,CLR,,0.01,WeatherDisplay:10.37,2013-10-03 15:35:00,
2013-10-03 11:36:00,72.9,62.9,30.18,North,4,2.5,5.8,71,0.00,CLR,,0.01,WeatherDisplay:10.37,2013-10-03 15:36:00,
2013-10-03 11:37:00,72.8,62.4,30.18,NW,318,1.9,4.6,70,0.00,CLR,,0.01,WeatherDisplay:10.37,2013-10-03 15:37:00,
2013-10-03 11:39:00,72.9,62.5,30.18,WNW,292,3.4,6.9,70,0.00,CLR,,0.01,WeatherDisplay:10.37,2013-10-03 15:39:00,
2013-10-03 11:40:00,73.1,63.1,30.18,WNW,292,0.6,5.8,71,0.00,CLR,,0.01,WeatherDisplay:10.37,2013-10-03 15:40:00,
2013-10-03 11:41:00,72.9,62.9,30.18,WNW,292,0.0,0.0,71,0.00,CLR,,0.01,WeatherDisplay:10.37,2013-10-03 15:41:00,
2013-10-03 11:42:00,73.0,63.4,30.18,WNW,292,0.0,0.0,72,0.00,CLR,,0.01,WeatherDisplay:10.37,2013-10-03 15:42:00,
2013-10-03 11:45:00,73.3,62.1,30.18,WNW,287,4.0,6.9,68,0.00,CLR,,0.01,WeatherDisplay:10.37,2013-10-03 15:45:00,
2013-10-03 11:46:00,73.3,62.5,30.18,WNW,287,0.7,4.6,69,0.00,CLR,,0.01,WeatherDisplay:10.37,2013-10-03 15:46:00,
2013-10-03 11:47:00,73.6,62.8,30.18,NNW,335,1.5,0.0,69,0.00,CLR,,0.01,WeatherDisplay:10.37,2013-10-03 15:47:00,
2013-10-03 11:50:00,73.8,63.0,30.18,WNW,302,1.4,4.6,69,0.00,CLR,,0.01,WeatherDisplay:10.37,2013-10-03 15:50:00,
2013-10-03 11:51:00,74.0,62.8,30.18,NW,313,1.7,4.6,68,0.00,CLR,,0.01,WeatherDisplay:10.37,2013-10-03 15:51:00,
2013-10-03 11:52:00,74.0,62.8,30.18,North,10,0.4,4.6,68,0.00,CLR,,0.01,WeatherDisplay:10.37,2013-10-03 15:52:00,
2013-10-03 11:53:00,74.0,62.3,30.18,NNE,21,1.2,4.6,67,0.00,CLR,,0.01,WeatherDisplay:10.37,2013-10-03 15:53:00,
2013-10-03 11:55:00,73.8,62.2,30.18,WNW,295,1.5,5.8,67,0.00,CLR,,0.01,WeatherDisplay:10.37,2013-10-03 15:55:00,
2013-10-03 11:57:00,74.0,61.9,30.18,WNW,295,0.0,0.0,66,0.00,CLR,,0.01,WeatherDisplay:10.37,2013-10-03 15:57:00,
2013-10-03 11:58:00,74.1,62.0,30.17,WNW,295,0.0,0.0,66,0.00,CLR,,0.01,WeatherDisplay:10.37,2013-10-03 15:58:00,
2013-10-03 12:00:00,74.0,61.5,30.18,WNW,295,0.0,0.0,65,0.00,CLR,,0.01,WeatherDisplay:10.37,2013-10-03 16:00:00,
2013-10-03 12:01:00,74.1,61.6,30.18,WNW,295,0.0,0.0,65,0.00,CLR,,0.01,WeatherDisplay:10.37,2013-10-03 16:01:00,
2013-10-03 12:02:00,74.1,62.0,30.17,WNW,295,0.0,0.0,66,0.00,CLR,,0.01,WeatherDisplay:10.37,2013-10-03 16:02:00,
2013-10-03 12:03:00,74.1,62.0,30.17,North,354,1.0,4.6,66,0.00,CLR,,0.01,WeatherDisplay:10.37,2013-10-03 16:03:00,
2013-10-03 12:04:00,74.2,61.2,30.17,North,354,0.0,0.0,64,0.00,CLR,,0.01,WeatherDisplay:10.37,2013-10-03 16:04:00,
2013-10-03 12:06:00,74.6,61.6,30.17,North,354,0.0,0.0,64,0.00,CLR,,0.01,WeatherDisplay:10.37,2013-10-03 16:06:00,
2013-10-03 12:07:00,74.3,60.9,30.17,North,354,0.0,0.0,63,0.00,CLR,,0.01,WeatherDisplay:10.37,2013-10-03 16:07:00,
2013-10-03 12:08:00,74.5,61.1,30.17,West,272,0.6,3.5,63,0.00,CLR,,0.01,WeatherDisplay:10.37,2013-10-03 16:08:00,
2013-10-03 12:09:00,74.5,61.5,30.17,WNW,288,1.9,4.6,64,0.00,CLR,,0.01,WeatherDisplay:10.37,2013-10-03 16:09:00,
2013-10-03 12:10:00,74.5,61.5,30.17,WNW,285,0.5,4.6,64,0.00,CLR,,0.01,WeatherDisplay:10.37,2013-10-03 16:10:00,
2013-10-03 12:11:00,74.4,61.4,30.17,WNW,285,0.0,0.0,64,0.00,CLR,,0.01,WeatherDisplay:10.37,2013-10-03 16:11:00,
2013-10-03 12:12:00,74.9,61.5,30.17,West,264,1.3,4.4,63,0.00,CLR,,0.01,WeatherDisplay:10.37,2013-10-03 16:12:00,
2013-10-03 12:14:00,74.6,62.1,30.17,WNW,296,0.0,0.0,65,0.00,CLR,,0.01,WeatherDisplay:10.37,2013-10-03 16:14:00,
2013-10-03 12:15:00,75.1,63.0,30.17,WNW,296,0.0,0.0,66,0.00,CLR,,0.01,WeatherDisplay:10.37,2013-10-03 16:15:00,
2013-10-03 12:16:00,75.1,62.1,30.17,WNW,296,0.0,0.0,64,0.00,CLR,,0.01,WeatherDisplay:10.37,2013-10-03 16:16:00,
2013-10-03 12:17:00,75.3,62.3,30.17,NW,319,0.2,3.4,64,0.00,CLR,,0.01,WeatherDisplay:10.37,2013-10-03 16:17:00,
2013-10-03 12:19:00,75.2,61.7,30.17,WSW,247,0.7,5.8,63,0.00,CLR,,0.01,WeatherDisplay:10.37,2013-10-03 16:19:00,
2013-10-03 12:20:00,75.4,61.9,30.17,WSW,246,2.4,6.9,63,0.00,CLR,,0.01,WeatherDisplay:10.37,2013-10-03 16:20:00,
2013-10-03 12:22:00,75.1,61.6,30.17,WSW,246,0.0,0.0,63,0.00,CLR,,0.01,WeatherDisplay:10.37,2013-10-03 16:22:00,
2013-10-03 12:24:00,75.7,61.8,30.17,West,264,1.9,5.8,62,0.00,CLR,,0.01,WeatherDisplay:10.37,2013-10-03 16:24:00,
2013-10-03 12:25:00,75.4,61.5,30.17,West,264,0.0,0.0,62,0.00,CLR,,0.01,WeatherDisplay:10.37,2013-10-03 16:25:00,
2013-10-03 12:27:00,75.3,60.9,30.17,West,264,0.0,0.0,61,0.00,CLR,,0.01,WeatherDisplay:10.37,2013-10-03 16:27:00,
2013-10-03 12:29:00,75.4,61.0,30.17,West,264,0.0,0.0,61,0.00,CLR,,0.01,WeatherDisplay:10.37,2013-10-03 16:29:00,
2013-10-03 12:30:00,75.5,61.1,30.17,West,264,0.0,0.0,61,0.00,CLR,,0.01,WeatherDisplay:10.37,2013-10-03 16:30:00,
2013-10-03 12:32:00,75.8,60.9,30.17,West,264,0.0,0.0,60,0.00,CLR,,0.01,WeatherDisplay:10.37,2013-10-03 16:32:00,
2013-10-03 12:34:00,76.1,61.2,30.17,NW,311,0.3,5.8,60,0.00,CLR,,0.01,WeatherDisplay:10.37,2013-10-03 16:34:00,
2013-10-03 12:35:00,76.0,61.1,30.17,NW,311,0.0,0.0,60,0.00,CLR,,0.01,WeatherDisplay:10.37,2013-10-03 16:35:00,
2013-10-03 12:37:00,76.0,61.1,30.16,NW,311,0.0,0.0,60,0.00,CLR,,0.01,WeatherDisplay:10.37,2013-10-03 16:37:00,
2013-10-03 12:38:00,76.0,60.6,30.16,NW,311,0.0,0.0,59,0.00,CLR,,0.01,WeatherDisplay:10.37,2013-10-03 16:38:00,
2013-10-03 12:40:00,76.2,60.8,30.16,WNW,285,0.0,4.2,59,0.00,CLR,,0.01,WeatherDisplay:10.37,2013-10-03 16:40:00,
2013-10-03 12:41:00,76.2,61.3,30.16,NW,320,1.2,0.0,60,0.00,CLR,,0.01,WeatherDisplay:10.37,2013-10-03 16:41:00,
2013-10-03 12:42:00,76.3,60.4,30.16,NW,315,0.9,4.6,58,0.00,CLR,,0.01,WeatherDisplay:10.37,2013-10-03 16:42:00,
2013-10-03 12:43:00,76.3,60.9,30.16,NW,315,0.2,2.3,59,0.00,CLR,,0.01,WeatherDisplay:10.37,2013-10-03 16:43:00,
2013-10-03 12:45:00,77.0,61.1,30.16,NW,325,1.0,4.6,58,0.00,CLR,,0.01,WeatherDisplay:10.37,2013-10-03 16:45:00,
2013-10-03 12:46:00,77.0,61.1,30.16,NW,325,0.6,4.6,58,0.00,CLR,,0.01,WeatherDisplay:10.37,2013-10-03 16:46:00,
2013-10-03 12:47:00,76.2,60.3,30.16,NW,325,0.0,0.0,58,0.00,CLR,,0.01,WeatherDisplay:10.37,2013-10-03 16:47:00,
2013-10-03 12:48:00,76.3,60.4,30.16,NW,325,0.0,0.0,58,0.00,CLR,,0.01,WeatherDisplay:10.37,2013-10-03 16:48:00,
2013-10-03 12:51:00,76.5,60.1,30.16,NW,325,0.0,0.0,57,0.00,CLR,,0.01,WeatherDisplay:10.37,2013-10-03 16:51:00,
2013-10-03 12:52:00,76.5,60.1,30.16,NW,325,0.0,0.0,57,0.00,CLR,,0.01,WeatherDisplay:10.37,2013-10-03 16:52:00,
2013-10-03 12:53:00,76.1,60.2,30.16,NW,325,0.0,0.0,58,0.00,CLR,,0.01,WeatherDisplay:10.37,2013-10-03 16:53:00,
2013-10-03 12:56:00,76.2,60.3,30.16,NW,325,0.0,0.0,58,0.00,CLR,,0.01,WeatherDisplay:10.37,2013-10-03 16:56:00,
2013-10-03 12:57:00,76.1,60.2,30.16,NW,325,0.0,0.0,58,0.00,CLR,,0.01,WeatherDisplay:10.37,2013-10-03 16:57:00,
2013-10-03 12:58:00,76.3,60.4,30.16,NW,325,0.0,0.0,58,0.00,CLR,,0.01,WeatherDisplay:10.37,2013-10-03 16:58:00,
2013-10-03 13:01:00,76.8,60.9,30.16,NW,325,0.0,0.0,58,0.00,CLR,,0.01,WeatherDisplay:10.37,2013-10-03 17:01:00,
2013-10-03 13:02:00,76.4,60.5,30.16,NW,325,0.0,0.0,58,0.00,CLR,,0.01,WeatherDisplay:10.37,2013-10-03 17:02:00,
2013-10-03 13:03:00,76.3,60.4,30.16,NW,325,0.0,0.0,58,0.00,CLR,,0.01,WeatherDisplay:10.37,2013-10-03 17:03:00,
2013-10-03 13:06:00,77.3,60.4,30.16,WNW,289,0.0,0.0,56,0.00,CLR,,0.01,WeatherDisplay:10.37,2013-10-03 17:06:00,
2013-10-03 13:08:00,77.2,60.3,30.16,WNW,289,0.0,0.0,56,0.00,CLR,,0.01,WeatherDisplay:10.37,2013-10-03 17:08:00,
2013-10-03 13:12:00,76.9,59.5,30.15,NNE,21,0.0,0.0,55,0.00,CLR,,0.01,WeatherDisplay:10.37,2013-10-03 17:12:00,
2013-10-03 13:13:00,77.0,59.1,30.15,NNW,333,2.6,5.8,54,0.00,CLR,,0.01,WeatherDisplay:10.37,2013-10-03 17:13:00,
2013-10-03 13:17:00,76.9,58.5,30.15,WNW,285,0.6,6.9,53,0.00,CLR,,0.01,WeatherDisplay:10.37,2013-10-03 17:17:00,
2013-10-03 13:18:00,77.4,59.5,30.15,WNW,285,0.6,3.5,54,0.00,CLR,,0.01,WeatherDisplay:10.37,2013-10-03 17:18:00,
2013-10-03 13:19:00,77.7,59.7,30.15,WNW,285,0.0,0.0,54,0.00,CLR,,0.01,WeatherDisplay:10.37,2013-10-03 17:19:00,
2013-10-03 13:23:00,77.9,59.4,30.15,WNW,285,0.0,0.0,53,0.00,CLR,,0.01,WeatherDisplay:10.37,2013-10-03 17:23:00,
2013-10-03 13:24:00,77.7,59.2,30.15,WNW,285,0.0,0.0,53,0.00,CLR,,0.01,WeatherDisplay:10.37,2013-10-03 17:24:00,
2013-10-03 13:28:00,77.0,59.1,30.15,WNW,289,0.0,3.5,54,0.00,CLR,,0.01,WeatherDisplay:10.37,2013-10-03 17:28:00,
2013-10-03 13:29:00,77.9,59.9,30.15,WNW,289,0.0,3.5,54,0.00,CLR,,0.01,WeatherDisplay:10.37,2013-10-03 17:29:00,
2013-10-03 13:33:00,77.8,59.8,30.15,NNW,346,2.9,6.3,54,0.00,CLR,,0.01,WeatherDisplay:10.37,2013-10-03 17:33:00,
2013-10-03 13:34:00,77.9,59.9,30.15,NNW,342,3.8,6.0,54,0.00,CLR,,0.01,WeatherDisplay:10.37,2013-10-03 17:34:00,
2013-10-03 13:35:00,77.2,58.7,30.15,NNW,340,1.4,6.9,53,0.00,CLR,,0.01,WeatherDisplay:10.37,2013-10-03 17:35:00,
2013-10-03 13:38:00,77.8,59.3,30.14,NW,325,1.9,5.8,53,0.00,CLR,,0.01,WeatherDisplay:10.37,2013-10-03 17:38:00,
2013-10-03 13:39:00,77.5,58.5,30.14,NW,325,0.0,4.6,52,0.00,CLR,,0.01,WeatherDisplay:10.37,2013-10-03 17:39:00,
2013-10-03 13:40:00,77.4,58.4,30.14,NW,325,0.0,0.0,52,0.00,CLR,,0.01,WeatherDisplay:10.37,2013-10-03 17:40:00,
2013-10-03 13:44:00,79.1,59.4,30.14,NNW,329,1.1,5.8,51,0.00,CLR,,0.01,WeatherDisplay:10.37,2013-10-03 17:44:00,
2013-10-03 13:45:00,78.2,59.1,30.14,NNW,344,1.6,4.6,52,0.00,CLR,,0.01,WeatherDisplay:10.37,2013-10-03 17:45:00,
2013-10-03 13:47:00,78.7,59.6,30.14,NNW,344,0.0,0.0,52,0.00,CLR,,0.01,WeatherDisplay:10.37,2013-10-03 17:47:00,
2013-10-03 13:49:00,78.5,58.9,30.14,NNW,344,0.0,0.0,51,0.00,CLR,,0.01,WeatherDisplay:10.37,2013-10-03 17:49:00,
2013-10-03 13:50:00,79.7,60.0,30.14,NNW,344,0.0,0.0,51,0.00,CLR,,0.01,WeatherDisplay:10.37,2013-10-03 17:50:00,
2013-10-03 13:52:00,79.3,59.6,30.14,NNW,344,0.0,0.0,51,0.00,CLR,,0.01,WeatherDisplay:10.37,2013-10-03 17:52:00,
2013-10-03 13:54:00,78.3,59.2,30.14,NNW,344,0.0,0.0,52,0.00,CLR,,0.01,WeatherDisplay:10.37,2013-10-03 17:54:00,
2013-10-03 13:55:00,78.5,59.4,30.14,NNW,344,0.0,0.0,52,0.00,CLR,,0.01,WeatherDisplay:10.37,2013-10-03 17:55:00,
2013-10-03 13:57:00,77.8,58.2,30.14,North,6,0.0,0.0,51,0.00,CLR,,0.01,WeatherDisplay:10.37,2013-10-03 17:57:00,
2013-10-03 13:59:00,77.9,57.8,30.14,North,6,0.0,0.0,50,0.00,CLR,,0.01,WeatherDisplay:10.37,2013-10-03 17:59:00,
2013-10-03 14:00:00,78.0,58.4,30.14,North,6,0.0,0.0,51,0.00,CLR,,0.01,WeatherDisplay:10.37,2013-10-03 18:00:00,
2013-10-03 14:02:00,79.0,58.8,30.14,NW,308,4.7,8.1,50,0.00,CLR,,0.01,WeatherDisplay:10.37,2013-10-03 18:02:00,
2013-10-03 14:04:00,79.5,58.1,30.14,West,271,5.7,8.1,48,0.00,CLR,,0.01,WeatherDisplay:10.37,2013-10-03 18:04:00,
2013-10-03 14:05:00,78.3,58.1,30.14,West,280,1.4,8.1,50,0.00,CLR,,0.01,WeatherDisplay:10.37,2013-10-03 18:05:00,
2013-10-03 14:06:00,78.2,57.5,30.14,West,280,0.0,8.1,49,0.00,CLR,,0.01,WeatherDisplay:10.37,2013-10-03 18:06:00,
2013-10-03 14:07:00,79.1,58.3,30.14,West,280,0.0,0.0,49,0.00,CLR,,0.01,WeatherDisplay:10.37,2013-10-03 18:07:00,
2013-10-03 14:09:00,78.0,57.9,30.14,West,280,0.0,0.0,50,0.00,CLR,,0.01,WeatherDisplay:10.37,2013-10-03 18:09:00,
2013-10-03 14:10:00,78.8,58.0,30.14,West,280,0.0,0.0,49,0.00,CLR,,0.01,WeatherDisplay:10.37,2013-10-03 18:10:00,
2013-10-03 14:11:00,79.1,58.9,30.14,West,280,0.0,0.0,50,0.00,CLR,,0.01,WeatherDisplay:10.37,2013-10-03 18:11:00,
2013-10-03 14:13:00,78.0,57.9,30.14,West,280,0.0,0.0,50,0.00,CLR,,0.01,WeatherDisplay:10.37,2013-10-03 18:13:00,
2013-10-03 14:14:00,79.1,58.9,30.14,West,280,0.0,0.0,50,0.00,CLR,,0.01,WeatherDisplay:10.37,2013-10-03 18:14:00,
2013-10-03 14:16:00,79.1,58.9,30.14,SW,233,0.1,4.6,50,0.00,CLR,,0.01,WeatherDisplay:10.37,2013-10-03 18:16:00,
2013-10-03 14:18:00,78.9,58.1,30.14,WSW,256,0.0,0.0,49,0.00,CLR,,0.01,WeatherDisplay:10.37,2013-10-03 18:18:00,
2013-10-03 14:19:00,79.3,58.5,30.14,WSW,256,0.0,0.0,49,0.00,CLR,,0.01,WeatherDisplay:10.37,2013-10-03 18:19:00,
2013-10-03 14:21:00,79.5,58.7,30.14,WSW,256,0.0,0.0,49,0.00,CLR,,0.01,WeatherDisplay:10.37,2013-10-03 18:21:00,
2013-10-03 14:22:00,80.2,58.7,30.14,WSW,256,0.0,0.0,48,0.00,CLR,,0.01,WeatherDisplay:10.37,2013-10-03 18:22:00,
2013-10-03 14:23:00,80.5,59.0,30.14,WSW,256,0.0,0.0,48,0.00,CLR,,0.01,WeatherDisplay:10.37,2013-10-03 18:23:00,
2013-10-03 14:24:00,79.5,58.1,30.14,WSW,256,0.0,0.0,48,0.00,CLR,,0.01,WeatherDisplay:10.37,2013-10-03 18:24:00,
2013-10-03 14:26:00,80.3,58.2,30.13,SW,216,0.1,5.8,47,0.00,CLR,,0.01,WeatherDisplay:10.37,2013-10-03 18:26:00,
2013-10-03 14:27:00,80.5,58.4,30.13,SW,216,0.0,5.8,47,0.00,CLR,,0.01,WeatherDisplay:10.37,2013-10-03 18:27:00,
2013-10-03 14:29:00,80.3,58.2,30.13,SW,216,0.0,0.0,47,0.00,CLR,,0.01,WeatherDisplay:10.37,2013-10-03 18:29:00,
2013-10-03 14:32:00,80.2,58.7,30.13,SW,216,0.0,0.0,48,0.00,CLR,,0.01,WeatherDisplay:10.37,2013-10-03 18:32:00,
2013-10-03 14:33:00,80.5,59.0,30.13,SW,216,0.0,0.0,48,0.00,CLR,,0.01,WeatherDisplay:10.37,2013-10-03 18:33:00,
2013-10-03 14:34:00,81.6,60.0,30.13,NNE,13,0.0,0.0,48,0.00,CLR,,0.01,WeatherDisplay:10.37,2013-10-03 18:34:00,
2013-10-03 14:37:00,80.4,58.9,30.13,SW,216,0.0,0.0,48,0.00,CLR,,0.01,WeatherDisplay:10.37,2013-10-03 18:37:00,
2013-10-03 14:38:00,80.0,58.5,30.13,SW,216,0.0,0.0,48,0.00,CLR,,0.01,WeatherDisplay:10.37,2013-10-03 18:38:00,
2013-10-03 14:39:00,80.6,59.1,30.13,SW,216,0.0,0.0,48,0.00,CLR,,0.01,WeatherDisplay:10.37,2013-10-03 18:39:00,
2013-10-03 14:42:00,81.3,59.7,30.13,SW,216,0.0,0.0,48,0.00,CLR,,0.01,WeatherDisplay:10.37,2013-10-03 18:42:00,
2013-10-03 14:43:00,81.8,60.2,30.13,SW,216,0.0,0.0,48,0.00,CLR,,0.01,WeatherDisplay:10.37,2013-10-03 18:43:00,
2013-10-03 14:44:00,82.5,60.2,30.13,SW,216,0.0,0.0,47,0.00,CLR,,0.01,WeatherDisplay:10.37,2013-10-03 18:44:00,
2013-10-03 14:47:00,82.1,59.3,30.13,SW,216,0.0,0.0,46,0.00,CLR,,0.01,WeatherDisplay:10.37,2013-10-03 18:47:00,
2013-10-03 14:48:00,82.1,59.3,30.13,SW,216,0.0,0.0,46,0.00,CLR,,0.01,WeatherDisplay:10.37,2013-10-03 18:48:00,
2013-10-03 14:49:00,82.4,58.9,30.12,SSW,193,1.0,5.7,45,0.00,CLR,,0.01,WeatherDisplay:10.37,2013-10-03 18:49:00,
2013-10-03 14:50:00,82.4,58.9,30.12,SW,217,3.8,6.9,45,0.00,CLR,,0.01,WeatherDisplay:10.37,2013-10-03 18:50:00,
2013-10-03 14:52:00,83.1,59.6,30.12,SW,224,0.0,0.0,45,0.00,CLR,,0.01,WeatherDisplay:10.37,2013-10-03 18:52:00,
2013-10-03 14:53:00,83.1,60.2,30.12,SW,224,0.0,0.0,46,0.00,CLR,,0.01,WeatherDisplay:10.37,2013-10-03 18:53:00,
2013-10-03 14:54:00,82.7,59.8,30.12,SW,224,0.0,0.0,46,0.00,CLR,,0.01,WeatherDisplay:10.37,2013-10-03 18:54:00,
2013-10-03 14:55:00,82.8,59.9,30.12,SW,224,0.0,0.0,46,0.00,CLR,,0.01,WeatherDisplay:10.37,2013-10-03 18:55:00,
2013-10-03 14:58:00,82.4,58.9,30.12,ESE,121,5.1,8.1,45,0.00,CLR,,0.01,WeatherDisplay:10.37,2013-10-03 18:58:00,
2013-10-03 14:59:00,81.5,58.1,30.12,ESE,121,0.0,0.0,45,0.00,CLR,,0.01,WeatherDisplay:10.37,2013-10-03 18:59:00,
2013-10-03 15:00:00,82.3,58.8,30.12,ESE,121,0.0,0.0,45,0.00,CLR,,0.01,WeatherDisplay:10.37,2013-10-03 19:00:00,
2013-10-03 15:03:00,81.5,58.7,30.12,ESE,121,0.0,0.0,46,0.00,CLR,,0.01,WeatherDisplay:10.37,2013-10-03 19:03:00,
2013-10-03 15:04:00,81.4,58.6,30.12,ESE,121,0.0,0.0,46,0.00,CLR,,0.01,WeatherDisplay:10.37,2013-10-03 19:04:00,
2013-10-03 15:05:00,81.6,58.8,30.12,ESE,121,0.0,0.0,46,0.00,CLR,,0.01,WeatherDisplay:10.37,2013-10-03 19:05:00,
2013-10-03 15:06:00,80.9,58.2,30.12,ESE,121,0.0,0.0,46,0.00,CLR,,0.01,WeatherDisplay:10.37,2013-10-03 19:06:00,
2013-10-03 15:08:00,80.0,58.0,30.12,ESE,121,0.0,0.0,47,0.00,CLR,,0.01,WeatherDisplay:10.37,2013-10-03 19:08:00,
2013-10-03 15:09:00,81.3,59.1,30.12,ESE,121,0.0,0.0,47,0.00,CLR,,0.01,WeatherDisplay:10.37,2013-10-03 19:09:00,
2013-10-03 15:10:00,79.1,57.1,30.12,ESE,121,0.0,0.0,47,0.00,CLR,,0.01,WeatherDisplay:10.37,2013-10-03 19:10:00,
2013-10-03 15:11:00,79.5,58.1,30.12,ESE,121,0.0,0.0,48,0.00,CLR,,0.01,WeatherDisplay:10.37,2013-10-03 19:11:00,
2013-10-03 15:13:00,79.3,58.5,30.12,ESE,121,0.0,0.0,49,0.00,CLR,,0.01,WeatherDisplay:10.37,2013-10-03 19:13:00,
2013-10-03 15:14:00,79.7,57.7,30.12,ESE,121,0.0,0.0,47,0.00,CLR,,0.01,WeatherDisplay:10.37,2013-10-03 19:14:00,
2013-10-03 15:15:00,79.2,57.8,30.12,ESE,121,0.0,0.0,48,0.00,CLR,,0.01,WeatherDisplay:10.37,2013-10-03 19:15:00,
2013-10-03 15:17:00,79.3,57.9,30.12,ESE,121,0.0,0.0,48,0.00,CLR,,0.01,WeatherDisplay:10.37,2013-10-03 19:17:00,
2013-10-03 15:18:00,80.5,59.0,30.12,ESE,121,0.0,0.0,48,0.00,CLR,,0.01,WeatherDisplay:10.37,2013-10-03 19:18:00,
2013-10-03 15:19:00,80.6,59.1,30.12,ESE,121,0.0,0.0,48,0.00,CLR,,0.01,WeatherDisplay:10.37,2013-10-03 19:19:00,
2013-10-03 15:20:00,80.1,58.0,30.12,ESE,121,0.0,0.0,47,0.00,CLR,,0.01,WeatherDisplay:10.37,2013-10-03 19:20:00,
2013-10-03 15:22:00,79.9,57.9,30.12,ESE,121,0.0,0.0,47,0.00,CLR,,0.01,WeatherDisplay:10.37,2013-10-03 19:22:00,
2013-10-03 15:24:00,80.8,58.7,30.12,NW,319,1.7,0.0,47,0.00,CLR,,0.01,WeatherDisplay:10.37,2013-10-03 19:24:00,
2013-10-03 15:25:00,81.2,59.1,30.12,NW,319,0.0,0.0,47,0.00,CLR,,0.01,WeatherDisplay:10.37,2013-10-03 19:25:00,
2013-10-03 15:26:00,81.0,59.5,30.12,NW,319,0.0,0.0,48,0.00,CLR,,0.01,WeatherDisplay:10.37,2013-10-03 19:26:00,
2013-10-03 15:27:00,80.2,58.7,30.12,NW,319,0.0,0.0,48,0.00,CLR,,0.01,WeatherDisplay:10.37,2013-10-03 19:27:00,
2013-10-03 15:29:00,80.2,58.7,30.12,NW,319,0.0,0.0,48,0.00,CLR,,0.01,WeatherDisplay:10.37,2013-10-03 19:29:00,
2013-10-03 15:30:00,78.8,58.0,30.12,NW,319,0.0,0.0,49,0.00,CLR,,0.01,WeatherDisplay:10.37,2013-10-03 19:30:00,
2013-10-03 15:31:00,80.1,59.8,30.12,NW,319,0.0,4.5,50,0.00,CLR,,0.01,WeatherDisplay:10.37,2013-10-03 19:31:00,
2013-10-03 15:32:00,79.5,58.7,30.12,NNW,332,1.6,5.8,49,0.00,CLR,,0.01,WeatherDisplay:10.37,2013-10-03 19:32:00,
2013-10-03 15:34:00,78.2,57.5,30.12,North,360,3.5,5.8,49,0.00,CLR,,0.01,WeatherDisplay:10.37,2013-10-03 19:34:00,
2013-10-03 15:35:00,78.3,57.6,30.12,North,360,0.0,3.5,49,0.00,CLR,,0.01,WeatherDisplay:10.37,2013-10-03 19:35:00,
2013-10-03 15:36:00,78.9,58.7,30.12,North,360,0.0,0.0,50,0.00,CLR,,0.01,WeatherDisplay:10.37,2013-10-03 19:36:00,
2013-10-03 15:37:00,78.0,57.9,30.12,North,360,0.0,0.0,50,0.00,CLR,,0.01,WeatherDisplay:10.37,2013-10-03 19:37:00,
2013-10-03 15:38:00,77.9,57.8,30.12,North,360,0.0,0.0,50,0.00,CLR,,0.01,WeatherDisplay:10.37,2013-10-03 19:38:00,
2013-10-03 15:39:00,78.2,58.0,30.12,North,360,0.0,0.0,50,0.00,CLR,,0.01,WeatherDisplay:10.37,2013-10-03 19:39:00,
2013-10-03 15:40:00,78.2,58.0,30.12,North,360,0.0,0.0,50,0.00,CLR,,0.01,WeatherDisplay:10.37,2013-10-03 19:40:00,
2013-10-03 15:41:00,77.4,57.9,30.12,North,360,0.0,0.0,51,0.00,CLR,,0.01,WeatherDisplay:10.37,2013-10-03 19:41:00,
2013-10-03 15:42:00,77.8,58.2,30.12,North,360,0.0,0.0,51,0.00,CLR,,0.01,WeatherDisplay:10.37,2013-10-03 19:42:00,
2013-10-03 15:44:00,77.1,57.6,30.12,North,360,0.0,0.0,51,0.00,CLR,,0.01,WeatherDisplay:10.37,2013-10-03 19:44:00,
2013-10-03 15:45:00,77.0,57.5,30.12,North,360,0.0,0.0,51,0.00,CLR,,0.01,WeatherDisplay:10.37,2013-10-03 19:45:00,
2013-10-03 15:46:00,77.9,58.3,30.12,North,360,0.0,0.0,51,0.00,CLR,,0.01,WeatherDisplay:10.37,2013-10-03 19:46:00,
2013-10-03 15:48:00,78.1,59.0,30.12,North,360,0.0,0.0,52,0.00,CLR,,0.01,WeatherDisplay:10.37,2013-10-03 19:48:00,
2013-10-03 15:49:00,77.1,58.1,30.12,North,360,0.0,0.0,52,0.00,CLR,,0.01,WeatherDisplay:10.37,2013-10-03 19:49:00,
2013-10-03 15:51:00,77.8,58.8,30.12,North,360,0.0,0.0,52,0.00,CLR,,0.01,WeatherDisplay:10.37,2013-10-03 19:51:00,
2013-10-03 15:53:00,78.1,59.0,30.12,North,360,0.0,0.0,52,0.00,CLR,,0.01,WeatherDisplay:10.37,2013-10-03 19:53:00,
2013-10-03 15:54:00,77.1,58.6,30.12,North,360,0.0,0.0,53,0.00,CLR,,0.01,WeatherDisplay:10.37,2013-10-03 19:54:00,
2013-10-03 15:55:00,77.9,59.4,30.12,North,360,0.0,0.0,53,0.00,CLR,,0.01,WeatherDisplay:10.37,2013-10-03 19:55:00,
2013-10-03 15:56:00,77.7,59.2,30.11,NNE,21,0.0,0.0,53,0.00,CLR,,0.01,WeatherDisplay:10.37,2013-10-03 19:56:00,
2013-10-03 15:58:00,77.3,58.3,30.11,NNE,21,0.0,0.0,52,0.00,CLR,,0.01,WeatherDisplay:10.37,2013-10-03 19:58:00,
2013-10-03 15:59:00,77.4,58.4,30.12,NNE,21,0.0,0.0,52,0.00,CLR,,0.01,WeatherDisplay:10.37,2013-10-03 19:59:00,
2013-10-03 16:00:00,77.9,58.9,30.12,NNE,21,0.0,0.0,52,0.00,CLR,,0.01,WeatherDisplay:10.37,2013-10-03 20:00:00,
2013-10-03 16:01:00,77.7,58.7,30.12,NNE,21,0.0,0.0,52,0.00,CLR,,0.01,WeatherDisplay:10.37,2013-10-03 20:01:00,
2013-10-03 16:03:00,78.1,59.0,30.11,NNE,21,0.0,0.0,52,0.00,CLR,,0.01,WeatherDisplay:10.37,2013-10-03 20:03:00,
2013-10-03 16:04:00,77.7,59.2,30.11,NNE,21,0.0,0.0,53,0.00,CLR,,0.01,WeatherDisplay:10.37,2013-10-03 20:04:00,
2013-10-03 16:05:00,77.7,59.2,30.11,NNE,21,0.0,0.0,53,0.00,CLR,,0.01,WeatherDisplay:10.37,2013-10-03 20:05:00,
2013-10-03 16:06:00,78.4,59.9,30.11,NNE,21,0.0,0.0,53,0.00,CLR,,0.01,WeatherDisplay:10.37,2013-10-03 20:06:00,
2013-10-03 16:09:00,77.9,59.4,30.11,NNE,21,0.0,0.0,53,0.00,CLR,,0.01,WeatherDisplay:10.37,2013-10-03 20:09:00,
2013-10-03 16:10:00,78.1,59.6,30.11,NNE,21,0.0,0.0,53,0.00,CLR,,0.01,WeatherDisplay:10.37,2013-10-03 20:10:00,
2013-10-03 16:11:00,77.0,58.6,30.11,NNE,21,0.0,0.0,53,0.00,CLR,,0.01,WeatherDisplay:10.37,2013-10-03 20:11:00,
2013-10-03 16:15:00,78.7,60.1,30.11,NNE,21,0.0,0.0,53,0.00,CLR,,0.01,WeatherDisplay:10.37,2013-10-03 20:15:00,
2013-10-03 16:16:00,78.7,59.6,30.11,NNE,21,0.0,0.0,52,0.00,CLR,,0.01,WeatherDisplay:10.37,2013-10-03 20:16:00,
2013-10-03 16:17:00,77.7,58.7,30.11,NNE,21,0.0,0.0,52,0.00,CLR,,0.01,WeatherDisplay:10.37,2013-10-03 20:17:00,
2013-10-03 16:20:00,78.5,59.4,30.11,NNE,21,0.0,0.0,52,0.00,CLR,,0.01,WeatherDisplay:10.37,2013-10-03 20:20:00,
2013-10-03 16:21:00,77.7,58.7,30.11,NNE,21,0.0,0.0,52,0.00,CLR,,0.01,WeatherDisplay:10.37,2013-10-03 20:21:00,
2013-10-03 16:22:00,78.2,59.1,30.11,NNE,21,0.0,0.0,52,0.00,CLR,,0.01,WeatherDisplay:10.37,2013-10-03 20:22:00,
2013-10-03 16:25:00,77.4,58.4,30.11,NNE,21,0.0,0.0,52,0.00,CLR,,0.01,WeatherDisplay:10.37,2013-10-03 20:25:00,
2013-10-03 16:26:00,78.3,59.2,30.11,NNE,21,0.0,0.0,52,0.00,CLR,,0.01,WeatherDisplay:10.37,2013-10-03 20:26:00,
2013-10-03 16:27:00,78.4,59.9,30.11,NNE,21,0.0,0.0,53,0.00,CLR,,0.01,WeatherDisplay:10.37,2013-10-03 20:27:00,
2013-10-03 16:31:00,77.9,59.9,30.11,NNE,21,0.0,0.0,54,0.00,CLR,,0.01,WeatherDisplay:10.37,2013-10-03 20:31:00,
2013-10-03 16:32:00,77.8,59.3,30.11,NNE,21,0.0,0.0,53,0.00,CLR,,0.01,WeatherDisplay:10.37,2013-10-03 20:32:00,
2013-10-03 16:33:00,77.9,59.4,30.11,NNE,21,0.0,0.0,53,0.00,CLR,,0.01,WeatherDisplay:10.37,2013-10-03 20:33:00,
2013-10-03 16:36:00,77.5,58.5,30.11,NNE,21,0.0,0.0,52,0.00,CLR,,0.01,WeatherDisplay:10.37,2013-10-03 20:36:00,
2013-10-03 16:37:00,78.0,58.4,30.11,NNE,21,0.0,0.0,51,0.00,CLR,,0.01,WeatherDisplay:10.37,2013-10-03 20:37:00,
2013-10-03 16:38:00,78.1,59.0,30.11,NNE,21,0.0,0.0,52,0.00,CLR,,0.01,WeatherDisplay:10.37,2013-10-03 20:38:00,
2013-10-03 16:41:00,79.1,59.4,30.11,NNE,21,0.0,0.0,51,0.00,CLR,,0.01,WeatherDisplay:10.37,2013-10-03 20:41:00,
2013-10-03 16:42:00,77.9,58.3,30.11,NNE,21,0.0,0.0,51,0.00,CLR,,0.01,WeatherDisplay:10.37,2013-10-03 20:42:00,
2013-10-03 16:43:00,78.5,58.9,30.11,NNE,21,0.0,0.0,51,0.00,CLR,,0.01,WeatherDisplay:10.37,2013-10-03 20:43:00,
2013-10-03 16:46:00,78.1,57.9,30.11,WNW,291,0.0,0.0,50,0.00,CLR,,0.01,WeatherDisplay:10.37,2013-10-03 20:46:00,
2013-10-03 16:47:00,79.1,58.9,30.11,WNW,291,0.0,0.0,50,0.00,CLR,,0.01,WeatherDisplay:10.37,2013-10-03 20:47:00,
2013-10-03 16:48:00,78.4,58.2,30.11,WNW,291,0.0,0.0,50,0.00,CLR,,0.01,WeatherDisplay:10.37,2013-10-03 20:48:00,
2013-10-03 16:51:00,80.0,59.1,30.11,WNW,291,0.0,0.0,49,0.00,CLR,,0.01,WeatherDisplay:10.37,2013-10-03 20:51:00,
2013-10-03 16:52:00,80.0,59.1,30.11,WNW,291,0.0,0.0,49,0.00,CLR,,0.01,WeatherDisplay:10.37,2013-10-03 20:52:00,
2013-10-03 16:53:00,80.3,59.4,30.11,WNW,291,0.0,0.0,49,0.00,CLR,,0.01,WeatherDisplay:10.37,2013-10-03 20:53:00,
2013-10-03 16:57:00,79.0,58.8,30.11,WNW,291,0.0,0.0,50,0.00,CLR,,0.01,WeatherDisplay:10.37,2013-10-03 20:57:00,
2013-10-03 16:58:00,79.2,59.0,30.11,WNW,291,0.0,0.0,50,0.00,CLR,,0.01,WeatherDisplay:10.37,2013-10-03 20:58:00,
2013-10-03 16:59:00,77.8,57.7,30.11,WNW,291,0.0,0.0,50,0.00,CLR,,0.01,WeatherDisplay:10.37,2013-10-03 20:59:00,
2013-10-03 17:02:00,78.3,59.2,30.11,WNW,291,0.0,0.0,52,0.00,CLR,,0.01,WeatherDisplay:10.37,2013-10-03 21:02:00,
2013-10-03 17:03:00,79.0,59.3,30.11,WNW,291,0.0,0.0,51,0.00,CLR,,0.01,WeatherDisplay:10.37,2013-10-03 21:03:00,
2013-10-03 17:04:00,78.0,58.4,30.11,WNW,291,0.0,0.0,51,0.00,CLR,,0.01,WeatherDisplay:10.37,2013-10-03 21:04:00,
2013-10-03 17:07:00,78.3,58.7,30.11,WNW,291,0.0,0.0,51,0.00,CLR,,0.01,WeatherDisplay:10.37,2013-10-03 21:07:00,
2013-10-03 17:08:00,77.4,57.9,30.11,WNW,291,0.0,0.0,51,0.00,CLR,,0.01,WeatherDisplay:10.37,2013-10-03 21:08:00,
2013-10-03 17:09:00,77.9,58.9,30.11,WNW,291,0.0,0.0,52,0.00,CLR,,0.01,WeatherDisplay:10.37,2013-10-03 21:09:00,
2013-10-03 17:12:00,77.9,58.3,30.11,WNW,291,0.0,0.0,51,0.00,CLR,,0.01,WeatherDisplay:10.37,2013-10-03 21:12:00,
2013-10-03 17:13:00,78.0,58.4,30.11,WNW,291,0.0,0.0,51,0.00,CLR,,0.01,WeatherDisplay:10.37,2013-10-03 21:13:00,
2013-10-03 17:14:00,78.2,58.6,30.11,WNW,291,0.0,0.0,51,0.00,CLR,,0.01,WeatherDisplay:10.37,2013-10-03 21:14:00,
2013-10-03 17:15:00,77.9,58.9,30.11,WNW,291,0.0,0.0,52,0.00,CLR,,0.01,WeatherDisplay:10.37,2013-10-03 21:15:00,
2013-10-03 17:18:00,77.8,59.3,30.11,WNW,291,0.0,0.0,53,0.00,CLR,,0.01,WeatherDisplay:10.37,2013-10-03 21:18:00,
2013-10-03 17:19:00,78.0,59.5,30.11,WNW,291,0.0,0.0,53,0.00,CLR,,0.01,WeatherDisplay:10.37,2013-10-03 21:19:00,
2013-10-03 17:20:00,78.0,59.5,30.11,WNW,291,0.0,0.0,53,0.00,CLR,,0.01,WeatherDisplay:10.37,2013-10-03 21:20:00,
2013-10-03 17:23:00,77.3,59.4,30.11,WNW,291,0.0,0.0,54,0.00,CLR,,0.01,WeatherDisplay:10.37,2013-10-03 21:23:00,
2013-10-03 17:24:00,76.9,59.0,30.11,WNW,291,0.0,0.0,54,0.00,CLR,,0.01,WeatherDisplay:10.37,2013-10-03 21:24:00,
2013-10-03 17:25:00,77.0,59.1,30.11,WNW,291,0.0,0.0,54,0.00,CLR,,0.01,WeatherDisplay:10.37,2013-10-03 21:25:00,
2013-10-03 17:28:00,76.6,59.2,30.11,WNW,291,0.0,0.0,55,0.00,CLR,,0.01,WeatherDisplay:10.37,2013-10-03 21:28:00,
2013-10-03 17:29:00,77.2,59.8,30.11,WNW,291,0.0,0.0,55,0.00,CLR,,0.01,WeatherDisplay:10.37,2013-10-03 21:29:00,
2013-10-03 17:30:00,77.7,60.2,30.11,WNW,291,0.0,0.0,55,0.00,CLR,,0.01,WeatherDisplay:10.37,2013-10-03 21:30:00,
2013-10-03 17:31:00,77.7,60.2,30.11,WNW,291,0.0,0.0,55,0.00,CLR,,0.01,WeatherDisplay:10.37,2013-10-03 21:31:00,
2013-10-03 17:33:00,77.8,60.3,30.11,WNW,291,0.0,0.0,55,0.00,CLR,,0.01,WeatherDisplay:10.37,2013-10-03 21:33:00,
2013-10-03 17:34:00,77.3,59.9,30.11,WNW,291,0.0,0.0,55,0.00,CLR,,0.01,WeatherDisplay:10.37,2013-10-03 21:34:00,
2013-10-03 17:35:00,78.3,60.3,30.11,WNW,291,0.0,0.0,54,0.00,CLR,,0.01,WeatherDisplay:10.37,2013-10-03 21:35:00,
2013-10-03 17:36:00,78.1,60.1,30.11,WNW,291,0.0,0.0,54,0.00,CLR,,0.01,WeatherDisplay:10.37,2013-10-03 21:36:00,
2013-10-03 17:38:00,77.8,59.8,30.11,WNW,291,0.0,0.0,54,0.00,CLR,,0.01,WeatherDisplay:10.37,2013-10-03 21:38:00,
2013-10-03 17:39:00,78.1,60.1,30.11,WNW,291,0.0,0.0,54,0.00,CLR,,0.01,WeatherDisplay:10.37,2013-10-03 21:39:00,
2013-10-03 17:41:00,78.2,60.2,30.11,WNW,291,0.0,0.0,54,0.00,CLR,,0.01,WeatherDisplay:10.37,2013-10-03 21:41:00,
2013-10-03 17:43:00,77.5,59.5,30.11,WNW,291,0.0,0.0,54,0.00,CLR,,0.01,WeatherDisplay:10.37,2013-10-03 21:43:00,
2013-10-03 17:44:00,78.0,60.0,30.11,WNW,291,0.0,0.0,54,0.00,CLR,,0.01,WeatherDisplay:10.37,2013-10-03 21:44:00,
2013-10-03 17:45:00,77.1,59.2,30.11,WNW,291,0.0,0.0,54,0.00,CLR,,0.01,WeatherDisplay:10.37,2013-10-03 21:45:00,
2013-10-03 17:46:00,77.3,59.4,30.11,WNW,291,0.0,0.0,54,0.00,CLR,,0.01,WeatherDisplay:10.37,2013-10-03 21:46:00,
2013-10-03 17:47:00,77.0,59.1,30.11,WNW,291,0.0,0.0,54,0.00,CLR,,0.01,WeatherDisplay:10.37,2013-10-03 21:47:00,
2013-10-03 17:49:00,77.2,59.8,30.11,WNW,291,0.0,0.0,55,0.00,CLR,,0.01,WeatherDisplay:10.37,2013-10-03 21:49:00,
2013-10-03 17:51:00,77.2,59.8,30.11,NNE,20,0.0,0.0,55,0.00,CLR,,0.01,WeatherDisplay:10.37,2013-10-03 21:51:00,
2013-10-03 17:52:00,77.0,60.1,30.11,NNE,20,0.0,0.0,56,0.00,CLR,,0.01,WeatherDisplay:10.37,2013-10-03 21:52:00,
2013-10-03 17:54:00,76.6,59.7,30.11,NNE,20,0.0,0.0,56,0.00,CLR,,0.01,WeatherDisplay:10.37,2013-10-03 21:54:00,
2013-10-03 17:56:00,76.7,59.8,30.11,NNE,20,0.0,0.0,56,0.00,CLR,,0.01,WeatherDisplay:10.37,2013-10-03 21:56:00,
2013-10-03 17:57:00,76.5,59.6,30.11,NNE,20,0.0,0.0,56,0.00,CLR,,0.01,WeatherDisplay:10.37,2013-10-03 21:57:00,
2013-10-03 17:58:00,76.4,59.5,30.11,NNE,20,0.0,0.0,56,0.00,CLR,,0.01,WeatherDisplay:10.37,2013-10-03 21:58:00,
2013-10-03 17:59:00,77.3,60.9,30.11,NNE,20,0.0,0.0,57,0.00,CLR,,0.01,WeatherDisplay:10.37,2013-10-03 21:59:00,
2013-10-03 18:01:00,77.2,60.8,30.11,NNE,20,0.0,0.0,57,0.00,CLR,,0.01,WeatherDisplay:10.37,2013-10-03 22:01:00,
2013-10-03 18:02:00,76.8,60.4,30.11,NNE,20,0.0,0.0,57,0.00,CLR,,0.01,WeatherDisplay:10.37,2013-10-03 22:02:00,
2013-10-03 18:03:00,76.7,60.3,30.11,NNE,20,0.0,0.0,57,0.00,CLR,,0.01,WeatherDisplay:10.37,2013-10-03 22:03:00,
2013-10-03 18:05:00,77.0,61.1,30.11,NNE,20,0.0,0.0,58,0.00,CLR,,0.01,WeatherDisplay:10.37,2013-10-03 22:05:00,
2013-10-03 18:06:00,76.7,60.3,30.11,NNE,20,0.0,0.0,57,0.00,CLR,,0.01,WeatherDisplay:10.37,2013-10-03 22:06:00,
2013-10-03 18:07:00,77.0,60.6,30.11,NNE,20,0.0,0.0,57,0.00,CLR,,0.01,WeatherDisplay:10.37,2013-10-03 22:07:00,
2013-10-03 18:09:00,76.5,60.1,30.11,NNE,20,0.0,0.0,57,0.00,CLR,,0.01,WeatherDisplay:10.37,2013-10-03 22:09:00,
2013-10-03 18:10:00,76.5,60.1,30.11,NNE,20,0.0,0.0,57,0.00,CLR,,0.01,WeatherDisplay:10.37,2013-10-03 22:10:00,
2013-10-03 18:11:00,76.5,60.1,30.11,NNE,20,0.0,0.0,57,0.00,CLR,,0.01,WeatherDisplay:10.37,2013-10-03 22:11:00,
2013-10-03 18:13:00,76.6,60.2,30.11,NNE,20,0.0,0.0,57,0.00,CLR,,0.01,WeatherDisplay:10.37,2013-10-03 22:13:00,
2013-10-03 18:14:00,77.0,61.1,30.11,NNE,20,0.0,0.0,58,0.00,CLR,,0.01,WeatherDisplay:10.37,2013-10-03 22:14:00,
2013-10-03 18:16:00,76.6,61.2,30.11,NNE,20,0.0,0.0,59,0.00,CLR,,0.01,WeatherDisplay:10.37,2013-10-03 22:16:00,
2013-10-03 18:17:00,76.3,61.4,30.11,NNE,20,0.0,0.0,60,0.00,CLR,,0.01,WeatherDisplay:10.37,2013-10-03 22:17:00,
2013-10-03 18:18:00,76.3,61.4,30.11,NNE,20,0.0,0.0,60,0.00,CLR,,0.01,WeatherDisplay:10.37,2013-10-03 22:18:00,
2013-10-03 18:19:00,76.3,61.4,30.11,NNE,20,0.0,0.0,60,0.00,CLR,,0.01,WeatherDisplay:10.37,2013-10-03 22:19:00,
2013-10-03 18:21:00,76.9,62.4,30.11,NNE,20,0.0,0.0,61,0.00,CLR,,0.01,WeatherDisplay:10.37,2013-10-03 22:21:00,
2013-10-03 18:22:00,76.4,62.4,30.11,NNE,20,0.0,0.0,62,0.00,CLR,,0.01,WeatherDisplay:10.37,2013-10-03 22:22:00,
2013-10-03 18:23:00,76.3,62.3,30.11,NNE,20,0.0,0.0,62,0.00,CLR,,0.01,WeatherDisplay:10.37,2013-10-03 22:23:00,
2013-10-03 18:24:00,76.4,62.4,30.11,NNE,20,0.0,0.0,62,0.00,CLR,,0.01,WeatherDisplay:10.37,2013-10-03 22:24:00,
2013-10-03 18:26:00,76.6,63.1,30.11,NNE,20,0.0,0.0,63,0.00,CLR,,0.01,WeatherDisplay:10.37,2013-10-03 22:26:00,
2013-10-03 18:27:00,76.4,62.9,30.12,NNE,20,0.0,0.0,63,0.00,CLR,,0.01,WeatherDisplay:10.37,2013-10-03 22:27:00,
2013-10-03 18:28:00,76.2,62.7,30.11,NNE,20,0.0,0.0,63,0.00,CLR,,0.01,WeatherDisplay:10.37,2013-10-03 22:28:00,
2013-10-03 18:29:00,76.4,62.9,30.12,NNE,20,0.0,0.0,63,0.00,CLR,,0.01,WeatherDisplay:10.37,2013-10-03 22:29:00,
2013-10-03 18:31:00,76.1,63.0,30.11,NNE,20,0.0,0.0,64,0.00,CLR,,0.01,WeatherDisplay:10.37,2013-10-03 22:31:00,
2013-10-03 18:32:00,76.3,63.2,30.11,NNE,20,0.0,0.0,64,0.00,CLR,,0.01,WeatherDisplay:10.37,2013-10-03 22:32:00,
2013-10-03 18:34:00,76.2,63.1,30.12,NNE,20,0.0,0.0,64,0.00,CLR,,0.01,WeatherDisplay:10.37,2013-10-03 22:34:00,
2013-10-03 18:35:00,76.2,63.6,30.12,NNE,20,0.0,0.0,65,0.00,CLR,,0.01,WeatherDisplay:10.37,2013-10-03 22:35:00,
2013-10-03 18:36:00,76.2,63.6,30.12,NNE,20,0.0,0.0,65,0.00,CLR,,0.01,WeatherDisplay:10.37,2013-10-03 22:36:00,
2013-10-03 18:37:00,76.1,63.5,30.12,NNE,20,0.0,0.0,65,0.00,CLR,,0.01,WeatherDisplay:10.37,2013-10-03 22:37:00,
2013-10-03 18:38:00,75.9,63.3,30.12,NNE,20,0.0,0.0,65,0.00,CLR,,0.01,WeatherDisplay:10.37,2013-10-03 22:38:00,
2013-10-03 18:39:00,75.9,63.7,30.12,NNE,20,0.0,0.0,66,0.00,CLR,,0.01,WeatherDisplay:10.37,2013-10-03 22:39:00,
2013-10-03 18:40:00,76.0,63.8,30.12,NNE,20,0.0,0.0,66,0.00,CLR,,0.01,WeatherDisplay:10.37,2013-10-03 22:40:00,
2013-10-03 18:41:00,75.8,63.6,30.12,NNE,20,0.0,0.0,66,0.00,CLR,,0.01,WeatherDisplay:10.37,2013-10-03 22:41:00,
2013-10-03 18:42:00,75.8,63.6,30.12,NNE,20,0.0,0.0,66,0.00,CLR,,0.01,WeatherDisplay:10.37,2013-10-03 22:42:00,
2013-10-03 18:43:00,75.9,63.7,30.12,NNE,20,0.0,0.0,66,0.00,CLR,,0.01,WeatherDisplay:10.37,2013-10-03 22:43:00,
2013-10-03 18:44:00,75.7,63.5,30.12,NNE,20,0.0,0.0,66,0.00,CLR,,0.01,WeatherDisplay:10.37,2013-10-03 22:44:00,
2013-10-03 18:45:00,75.8,63.6,30.12,NNE,20,0.0,0.0,66,0.00,CLR,,0.01,WeatherDisplay:10.37,2013-10-03 22:45:00,
2013-10-03 18:46:00,75.8,63.6,30.12,NNE,20,0.0,0.0,66,0.00,CLR,,0.01,WeatherDisplay:10.37,2013-10-03 22:46:00,
2013-10-03 18:47:00,75.6,63.4,30.12,NNE,20,0.0,0.0,66,0.00,CLR,,0.01,WeatherDisplay:10.37,2013-10-03 22:47:00,
2013-10-03 18:48:00,75.7,64.0,30.12,NNE,20,0.0,0.0,67,0.00,CLR,,0.01,WeatherDisplay:10.37,2013-10-03 22:48:00,
2013-10-03 18:49:00,75.5,63.8,30.12,NNE,20,0.0,0.0,67,0.00,CLR,,0.01,WeatherDisplay:10.37,2013-10-03 22:49:00,
2013-10-03 18:51:00,75.7,64.0,30.12,NNE,20,0.0,0.0,67,0.00,CLR,,0.01,WeatherDisplay:10.37,2013-10-03 22:51:00,
2013-10-03 18:52:00,75.6,63.9,30.12,NNE,20,0.0,0.0,67,0.00,CLR,,0.01,WeatherDisplay:10.37,2013-10-03 22:52:00,
2013-10-03 18:53:00,75.0,63.3,30.12,NNE,20,0.0,0.0,67,0.00,CLR,,0.01,WeatherDisplay:10.37,2013-10-03 22:53:00,
2013-10-03 18:54:00,74.9,63.2,30.12,NNE,20,0.0,0.0,67,0.00,CLR,,0.01,WeatherDisplay:10.37,2013-10-03 22:54:00,
2013-10-03 18:56:00,75.2,63.9,30.12,NNE,20,0.0,0.0,68,0.00,CLR,,0.01,WeatherDisplay:10.37,2013-10-03 22:56:00,
2013-10-03 18:57:00,74.9,63.6,30.12,NNE,20,0.0,0.0,68,0.00,CLR,,0.01,WeatherDisplay:10.37,2013-10-03 22:57:00,
2013-10-03 18:58:00,74.9,63.6,30.12,NNE,20,0.0,0.0,68,0.00,CLR,,0.01,WeatherDisplay:10.37,2013-10-03 22:58:00,
2013-10-03 18:59:00,75.4,64.1,30.12,NNE,20,0.0,0.0,68,0.00,CLR,,0.01,WeatherDisplay:10.37,2013-10-03 22:59:00,
2013-10-03 19:01:00,74.8,63.9,30.12,NNE,20,0.0,0.0,69,0.00,CLR,,0.01,WeatherDisplay:10.37,2013-10-03 23:01:00,
2013-10-03 19:02:00,75.0,64.1,30.12,NNE,20,0.0,0.0,69,0.00,CLR,,0.01,WeatherDisplay:10.37,2013-10-03 23:02:00,
2013-10-03 19:03:00,74.9,64.0,30.12,NNE,20,0.0,0.0,69,0.00,CLR,,0.01,WeatherDisplay:10.37,2013-10-03 23:03:00,
2013-10-03 19:05:00,75.0,64.5,30.12,NNE,20,0.0,0.0,70,0.00,CLR,,0.01,WeatherDisplay:10.37,2013-10-03 23:05:00,
2013-10-03 19:06:00,74.8,64.4,30.12,NNE,20,0.0,0.0,70,0.00,CLR,,0.01,WeatherDisplay:10.37,2013-10-03 23:06:00,
2013-10-03 19:07:00,74.6,64.2,30.12,NNE,20,0.0,0.0,70,0.00,CLR,,0.01,WeatherDisplay:10.37,2013-10-03 23:07:00,
2013-10-03 19:08:00,74.9,64.5,30.12,NNE,20,0.0,0.0,70,0.00,CLR,,0.01,WeatherDisplay:10.37,2013-10-03 23:08:00,
2013-10-03 19:09:00,74.9,64.5,30.12,NNE,20,0.0,0.0,70,0.00,CLR,,0.01,WeatherDisplay:10.37,2013-10-03 23:09:00,
2013-10-03 19:10:00,75.0,64.5,30.12,NNE,20,0.0,0.0,70,0.00,CLR,,0.01,WeatherDisplay:10.37,2013-10-03 23:10:00,
2013-10-03 19:11:00,75.2,64.7,30.12,NNE,20,0.0,0.0,70,0.00,CLR,,0.01,WeatherDisplay:10.37,2013-10-03 23:11:00,
2013-10-03 19:12:00,74.8,64.4,30.12,NNE,20,0.0,0.0,70,0.00,CLR,,0.01,WeatherDisplay:10.37,2013-10-03 23:12:00,
2013-10-03 19:13:00,74.7,64.3,30.12,NNE,20,0.0,0.0,70,0.00,CLR,,0.01,WeatherDisplay:10.37,2013-10-03 23:13:00,
2013-10-03 19:14:00,74.7,64.3,30.12,NNE,20,0.0,0.0,70,0.00,CLR,,0.01,WeatherDisplay:10.37,2013-10-03 23:14:00,
2013-10-03 19:15:00,75.0,65.0,30.12,NNE,20,0.0,0.0,71,0.00,CLR,,0.01,WeatherDisplay:10.37,2013-10-03 23:15:00,
2013-10-03 19:17:00,74.7,64.7,30.12,NNE,20,0.0,0.0,71,0.00,CLR,,0.01,WeatherDisplay:10.37,2013-10-03 23:17:00,
2013-10-03 19:18:00,74.2,64.2,30.12,NNE,20,0.0,0.0,71,0.00,CLR,,0.01,WeatherDisplay:10.37,2013-10-03 23:18:00,
2013-10-03 19:19:00,74.6,64.6,30.12,NNE,20,0.0,0.0,71,0.00,CLR,,0.01,WeatherDisplay:10.37,2013-10-03 23:19:00,
2013-10-03 19:20:00,74.4,64.4,30.11,NNE,20,0.0,0.0,71,0.00,CLR,,0.01,WeatherDisplay:10.37,2013-10-03 23:20:00,
2013-10-03 19:21:00,74.4,64.8,30.12,NNE,20,0.0,0.0,72,0.00,CLR,,0.01,WeatherDisplay:10.37,2013-10-03 23:21:00,
2013-10-03 19:22:00,74.7,65.1,30.11,NNE,20,0.0,0.0,72,0.00,CLR,,0.01,WeatherDisplay:10.37,2013-10-03 23:22:00,
2013-10-03 19:24:00,74.3,64.7,30.11,NNE,20,0.0,0.0,72,0.00,CLR,,0.01,WeatherDisplay:10.37,2013-10-03 23:24:00,
2013-10-03 19:25:00,74.4,64.8,30.11,NNE,20,0.0,0.0,72,0.00,CLR,,0.01,WeatherDisplay:10.37,2013-10-03 23:25:00,
2013-10-03 19:26:00,74.5,64.9,30.11,NNE,20,0.0,0.0,72,0.00,CLR,,0.01,WeatherDisplay:10.37,2013-10-03 23:26:00,
2013-10-03 19:27:00,74.2,64.6,30.11,NNE,20,0.0,0.0,72,0.00,CLR,,0.01,WeatherDisplay:10.37,2013-10-03 23:27:00,
2013-10-03 19:29:00,74.1,64.5,30.11,NNE,20,0.0,0.0,72,0.00,CLR,,0.01,WeatherDisplay:10.37,2013-10-03 23:29:00,
2013-10-03 19:30:00,74.2,65.0,30.11,NNE,20,0.0,0.0,73,0.00,CLR,,0.01,WeatherDisplay:10.37,2013-10-03 23:30:00,
2013-10-03 19:31:00,74.1,64.9,30.11,NNE,20,0.0,0.0,73,0.00,CLR,,0.01,WeatherDisplay:10.37,2013-10-03 23:31:00,
2013-10-03 19:32:00,74.2,65.0,30.11,NNE,20,0.0,0.0,73,0.00,CLR,,0.01,WeatherDisplay:10.37,2013-10-03 23:32:00,
2013-10-03 19:33:00,74.2,65.0,30.11,NNE,20,0.0,0.0,73,0.00,CLR,,0.01,WeatherDisplay:10.37,2013-10-03 23:33:00,
2013-10-03 19:34:00,74.2,65.0,30.12,NNE,20,0.0,0.0,73,0.00,CLR,,0.01,WeatherDisplay:10.37,2013-10-03 23:34:00,
2013-10-03 19:35:00,74.1,64.9,30.12,NNE,20,0.0,0.0,73,0.00,CLR,,0.01,WeatherDisplay:10.37,2013-10-03 23:35:00,
2013-10-03 19:36:00,74.1,65.3,30.11,NNE,20,0.0,0.0,74,0.00,CLR,,0.01,WeatherDisplay:10.37,2013-10-03 23:36:00,
2013-10-03 19:37:00,74.1,65.3,30.12,NNE,20,0.0,0.0,74,0.00,CLR,,0.01,WeatherDisplay:10.37,2013-10-03 23:37:00,
2013-10-03 19:39:00,74.1,65.3,30.11,NNE,20,0.0,0.0,74,0.00,CLR,,0.01,WeatherDisplay:10.37,2013-10-03 23:39:00,
2013-10-03 19:40:00,74.0,65.2,30.11,NNE,20,0.0,0.0,74,0.00,CLR,,0.01,WeatherDisplay:10.37,2013-10-03 23:40:00,
2013-10-03 19:42:00,74.1,65.3,30.12,NNE,20,0.0,0.0,74,0.00,CLR,,0.01,WeatherDisplay:10.37,2013-10-03 23:42:00,
2013-10-03 19:44:00,74.0,65.2,30.12,NNE,20,0.0,0.0,74,0.00,CLR,,0.01,WeatherDisplay:10.37,2013-10-03 23:44:00,
2013-10-03 19:45:00,74.1,65.3,30.12,NNE,20,0.0,0.0,74,0.00,CLR,,0.01,WeatherDisplay:10.37,2013-10-03 23:45:00,
2013-10-03 19:47:00,74.1,65.7,30.11,NNE,20,0.0,0.0,75,0.00,CLR,,0.01,WeatherDisplay:10.37,2013-10-03 23:47:00,
2013-10-03 19:49:00,73.7,65.3,30.12,NNE,20,0.0,0.0,75,0.00,CLR,,0.01,WeatherDisplay:10.37,2013-10-03 23:49:00,
2013-10-03 19:50:00,74.1,65.7,30.12,NNE,20,0.0,0.0,75,0.00,CLR,,0.01,WeatherDisplay:10.37,2013-10-03 23:50:00,
2013-10-03 19:52:00,74.0,65.6,30.12,NNE,20,0.0,0.0,75,0.00,CLR,,0.01,WeatherDisplay:10.37,2013-10-03 23:52:00,
2013-10-03 19:53:00,74.0,65.6,30.12,NNE,20,0.0,0.0,75,0.00,CLR,,0.01,WeatherDisplay:10.37,2013-10-03 23:53:00,
2013-10-03 19:54:00,74.0,65.6,30.12,NNE,20,0.0,0.0,75,0.00,CLR,,0.01,WeatherDisplay:10.37,2013-10-03 23:54:00,
2013-10-03 19:55:00,74.1,65.7,30.12,NNE,20,0.0,0.0,75,0.00,CLR,,0.01,WeatherDisplay:10.37,2013-10-03 23:55:00,
2013-10-03 19:56:00,74.0,65.6,30.12,NNE,20,0.0,0.0,75,0.00,CLR,,0.01,WeatherDisplay:10.37,2013-10-03 23:56:00,
2013-10-03 19:58:00,74.0,65.6,30.12,NNE,20,0.0,0.0,75,0.00,CLR,,0.01,WeatherDisplay:10.37,2013-10-03 23:58:00,
2013-10-03 19:59:00,74.0,65.6,30.12,NNE,20,0.0,0.0,75,0.00,CLR,,0.01,WeatherDisplay:10.37,2013-10-03 23:59:00,
2013-10-03 20:00:00,74.0,65.6,30.12,NNE,20,0.0,0.0,75,0.00,CLR,,0.01,WeatherDisplay:10.37,2013-10-04 00:00:00,
2013-10-03 20:01:00,74.0,65.6,30.12,NNE,20,0.0,0.0,75,0.00,CLR,,0.01,WeatherDisplay:10.37,2013-10-04 00:01:00,
2013-10-03 20:03:00,74.0,65.6,30.12,NNE,20,0.0,0.0,75,0.00,CLR,,0.01,WeatherDisplay:10.37,2013-10-04 00:03:00,
2013-10-03 20:04:00,74.0,65.6,30.12,NNE,20,0.0,0.0,75,0.00,CLR,,0.01,WeatherDisplay:10.37,2013-10-04 00:04:00,
2013-10-03 20:06:00,74.0,65.6,30.12,NNE,20,0.0,0.0,75,0.00,CLR,,0.01,WeatherDisplay:10.37,2013-10-04 00:06:00,
2013-10-03 20:08:00,74.0,65.6,30.12,NNE,20,0.0,0.0,75,0.00,CLR,,0.01,WeatherDisplay:10.37,2013-10-04 00:08:00,
2013-10-03 20:09:00,74.0,65.6,30.12,NNE,20,0.0,0.0,75,0.00,CLR,,0.01,WeatherDisplay:10.37,2013-10-04 00:09:00,
2013-10-03 20:11:00,74.0,65.6,30.12,NNE,20,0.0,0.0,75,0.00,CLR,,0.01,WeatherDisplay:10.37,2013-10-04 00:11:00,
2013-10-03 20:12:00,74.0,65.6,30.12,NNE,20,0.0,0.0,75,0.00,CLR,,0.01,WeatherDisplay:10.37,2013-10-04 00:12:00,
2013-10-03 20:14:00,74.0,65.6,30.12,NNE,20,0.0,0.0,75,0.00,CLR,,0.01,WeatherDisplay:10.37,2013-10-04 00:14:00,
2013-10-03 20:16:00,73.8,65.4,30.12,NNE,20,0.0,0.0,75,0.00,CLR,,0.01,WeatherDisplay:10.37,2013-10-04 00:16:00,
2013-10-03 20:17:00,74.0,65.6,30.12,NNE,20,0.0,0.0,75,0.00,CLR,,0.01,WeatherDisplay:10.37,2013-10-04 00:17:00,
2013-10-03 20:19:00,74.0,65.6,30.12,NNE,20,0.0,0.0,75,0.00,CLR,,0.01,WeatherDisplay:10.37,2013-10-04 00:19:00,
2013-10-03 20:21:00,74.0,65.6,30.12,NNE,20,0.0,0.0,75,0.00,CLR,,0.01,WeatherDisplay:10.37,2013-10-04 00:21:00,
2013-10-03 20:22:00,74.0,65.6,30.12,NNE,20,0.0,0.0,75,0.00,CLR,,0.01,WeatherDisplay:10.37,2013-10-04 00:22:00,
2013-10-03 20:23:00,73.9,65.5,30.12,NNE,20,0.0,0.0,75,0.00,CLR,,0.01,WeatherDisplay:10.37,2013-10-04 00:23:00,
2013-10-03 20:24:00,74.0,66.0,30.12,NNE,20,0.0,0.0,76,0.00,CLR,,0.01,WeatherDisplay:10.37,2013-10-04 00:24:00,
2013-10-03 20:26:00,73.7,65.7,30.12,NNE,20,0.0,0.0,76,0.00,CLR,,0.01,WeatherDisplay:10.37,2013-10-04 00:26:00,
2013-10-03 20:27:00,73.9,65.9,30.12,NNE,20,0.0,0.0,76,0.00,CLR,,0.01,WeatherDisplay:10.37,2013-10-04 00:27:00,
2013-10-03 20:28:00,73.7,65.7,30.12,NNE,20,0.0,0.0,76,0.00,CLR,,0.01,WeatherDisplay:10.37,2013-10-04 00:28:00,
2013-10-03 20:29:00,73.6,65.6,30.12,NNE,20,0.0,0.0,76,0.00,CLR,,0.01,WeatherDisplay:10.37,2013-10-04 00:29:00,
2013-10-03 20:30:00,74.0,66.0,30.12,NNE,20,0.0,0.0,76,0.00,CLR,,0.01,WeatherDisplay:10.37,2013-10-04 00:30:00,
2013-10-03 20:31:00,73.6,65.6,30.13,NNE,20,0.0,0.0,76,0.00,CLR,,0.01,WeatherDisplay:10.37,2013-10-04 00:31:00,
2013-10-03 20:32:00,73.8,65.8,30.13,NNE,20,0.0,0.0,76,0.00,CLR,,0.01,WeatherDisplay:10.37,2013-10-04 00:32:00,
2013-10-03 20:33:00,73.9,65.9,30.13,NNE,20,0.0,0.0,76,0.00,CLR,,0.01,WeatherDisplay:10.37,2013-10-04 00:33:00,
2013-10-03 20:34:00,73.7,65.7,30.13,NNE,20,0.0,0.0,76,0.00,CLR,,0.01,WeatherDisplay:10.37,2013-10-04 00:34:00,
2013-10-03 20:35:00,73.7,65.7,30.13,NNE,20,0.0,0.0,76,0.00,CLR,,0.01,WeatherDisplay:10.37,2013-10-04 00:35:00,
2013-10-03 20:37:00,73.8,66.1,30.13,NNE,20,0.0,0.0,77,0.00,CLR,,0.01,WeatherDisplay:10.37,2013-10-04 00:37:00,
2013-10-03 20:38:00,73.6,65.9,30.13,NNE,20,0.0,0.0,77,0.00,CLR,,0.01,WeatherDisplay:10.37,2013-10-04 00:38:00,
2013-10-03 20:39:00,73.8,66.1,30.13,NNE,20,0.0,0.0,77,0.00,CLR,,0.01,WeatherDisplay:10.37,2013-10-04 00:39:00,
2013-10-03 20:40:00,73.8,66.1,30.13,NNE,20,0.0,0.0,77,0.00,CLR,,0.01,WeatherDisplay:10.37,2013-10-04 00:40:00,
2013-10-03 20:42:00,73.5,65.8,30.13,NNE,20,0.0,0.0,77,0.00,CLR,,0.01,WeatherDisplay:10.37,2013-10-04 00:42:00,
2013-10-03 20:43:00,73.8,66.1,30.13,NNE,20,0.0,0.0,77,0.00,CLR,,0.01,WeatherDisplay:10.37,2013-10-04 00:43:00,
2013-10-03 20:45:00,73.5,65.8,30.13,NNE,20,0.0,0.0,77,0.00,CLR,,0.01,WeatherDisplay:10.37,2013-10-04 00:45:00,
2013-10-03 20:47:00,73.7,66.0,30.13,NNE,20,0.0,0.0,77,0.00,CLR,,0.01,WeatherDisplay:10.37,2013-10-04 00:47:00,
2013-10-03 20:48:00,73.5,65.8,30.13,NNE,20,0.0,0.0,77,0.00,CLR,,0.01,WeatherDisplay:10.37,2013-10-04 00:48:00,
2013-10-03 20:49:00,73.5,65.8,30.13,NNE,20,0.0,0.0,77,0.00,CLR,,0.01,WeatherDisplay:10.37,2013-10-04 00:49:00,
2013-10-03 20:50:00,73.6,65.9,30.13,NNE,20,0.0,0.0,77,0.00,CLR,,0.01,WeatherDisplay:10.37,2013-10-04 00:50:00,
2013-10-03 20:52:00,73.6,65.9,30.13,NNE,20,0.0,0.0,77,0.00,CLR,,0.01,WeatherDisplay:10.37,2013-10-04 00:52:00,
2013-10-03 20:54:00,73.8,66.1,30.13,NNE,20,0.0,0.0,77,0.00,CLR,,0.01,WeatherDisplay:10.37,2013-10-04 00:54:00,
2013-10-03 20:55:00,73.8,66.1,30.13,NNE,20,0.0,0.0,77,0.00,CLR,,0.01,WeatherDisplay:10.37,2013-10-04 00:55:00,
2013-10-03 20:58:00,73.5,65.8,30.13,NNE,20,0.0,0.0,77,0.00,CLR,,0.01,WeatherDisplay:10.37,2013-10-04 00:58:00,
2013-10-03 20:59:00,73.2,65.6,30.13,NNE,20,0.0,0.0,77,0.00,CLR,,0.01,WeatherDisplay:10.37,2013-10-04 00:59:00,
2013-10-03 21:00:00,73.2,65.6,30.13,NNE,20,0.0,0.0,77,0.00,CLR,,0.01,WeatherDisplay:10.37,2013-10-04 01:00:00,
2013-10-03 21:01:00,73.6,65.9,30.13,NNE,20,0.0,0.0,77,0.00,CLR,,0.01,WeatherDisplay:10.37,2013-10-04 01:01:00,
2013-10-03 21:03:00,73.4,65.7,30.13,NNE,20,0.0,0.0,77,0.00,CLR,,0.01,WeatherDisplay:10.37,2013-10-04 01:03:00,
2013-10-03 21:04:00,73.2,65.6,30.13,NNE,20,0.0,0.0,77,0.00,CLR,,0.01,WeatherDisplay:10.37,2013-10-04 01:04:00,
2013-10-03 21:05:00,73.5,65.8,30.13,NNE,20,0.0,0.0,77,0.00,CLR,,0.01,WeatherDisplay:10.37,2013-10-04 01:05:00,
2013-10-03 21:06:00,73.4,66.1,30.13,NNE,20,0.0,0.0,78,0.00,CLR,,0.01,WeatherDisplay:10.37,2013-10-04 01:06:00,
2013-10-03 21:09:00,72.9,65.6,30.13,NNE,20,0.0,0.0,78,0.00,CLR,,0.01,WeatherDisplay:10.37,2013-10-04 01:09:00,
2013-10-03 21:10:00,72.8,65.5,30.13,NNE,20,0.0,0.0,78,0.00,CLR,,0.01,WeatherDisplay:10.37,2013-10-04 01:10:00,
2013-10-03 21:11:00,73.2,65.9,30.13,NNE,20,0.0,0.0,78,0.00,CLR,,0.01,WeatherDisplay:10.37,2013-10-04 01:11:00,
2013-10-03 21:14:00,73.1,65.8,30.13,NNE,20,0.0,0.0,78,0.00,CLR,,0.01,WeatherDisplay:10.37,2013-10-04 01:14:00,
2013-10-03 21:15:00,73.2,65.9,30.13,NNE,20,0.0,0.0,78,0.00,CLR,,0.01,WeatherDisplay:10.37,2013-10-04 01:15:00,
2013-10-03 21:16:00,72.9,65.6,30.13,NNE,20,0.0,0.0,78,0.00,CLR,,0.01,WeatherDisplay:10.37,2013-10-04 01:16:00,
2013-10-03 21:19:00,72.7,65.8,30.13,NNE,20,0.0,0.0,79,0.00,CLR,,0.01,WeatherDisplay:10.37,2013-10-04 01:19:00,
2013-10-03 21:21:00,72.6,65.7,30.13,NNE,20,0.0,0.0,79,0.00,CLR,,0.01,WeatherDisplay:10.37,2013-10-04 01:21:00,
2013-10-03 21:22:00,72.6,65.7,30.13,NNE,20,0.0,0.0,79,0.00,CLR,,0.01,WeatherDisplay:10.37,2013-10-04 01:22:00,
2013-10-03 21:25:00,72.5,65.6,30.13,NNE,20,0.0,0.0,79,0.00,CLR,,0.01,WeatherDisplay:10.37,2013-10-04 01:25:00,
2013-10-03 21:26:00,72.5,66.0,30.13,NNE,20,0.0,0.0,80,0.00,CLR,,0.01,WeatherDisplay:10.37,2013-10-04 01:26:00,
2013-10-03 21:27:00,72.5,66.0,30.13,NNE,20,0.0,0.0,80,0.00,CLR,,0.01,WeatherDisplay:10.37,2013-10-04 01:27:00,
2013-10-03 21:30:00,72.4,65.9,30.13,NNE,20,0.0,0.0,80,0.00,CLR,,0.01,WeatherDisplay:10.37,2013-10-04 01:30:00,
2013-10-03 21:31:00,72.5,66.0,30.13,NNE,20,0.0,0.0,80,0.00,CLR,,0.01,WeatherDisplay:10.37,2013-10-04 01:31:00,
2013-10-03 21:32:00,72.0,65.5,30.13,NNE,20,0.0,0.0,80,0.00,CLR,,0.01,WeatherDisplay:10.37,2013-10-04 01:32:00,
2013-10-03 21:35:00,72.2,65.7,30.13,NNE,20,0.0,0.0,80,0.00,CLR,,0.01,WeatherDisplay:10.37,2013-10-04 01:35:00,
2013-10-03 21:36:00,72.3,65.8,30.13,NNE,20,0.0,0.0,80,0.00,CLR,,0.01,WeatherDisplay:10.37,2013-10-04 01:36:00,
2013-10-03 21:37:00,72.0,65.5,30.13,NNE,20,0.0,0.0,80,0.00,CLR,,0.01,WeatherDisplay:10.37,2013-10-04 01:37:00,
2013-10-03 21:40:00,71.8,65.7,30.13,NNE,20,0.0,0.0,81,0.00,CLR,,0.01,WeatherDisplay:10.37,2013-10-04 01:40:00,
2013-10-03 21:41:00,71.8,65.7,30.14,NNE,20,0.0,0.0,81,0.00,CLR,,0.01,WeatherDisplay:10.37,2013-10-04 01:41:00,
2013-10-03 21:42:00,71.6,65.5,30.14,NNE,20,0.0,0.0,81,0.00,CLR,,0.01,WeatherDisplay:10.37,2013-10-04 01:42:00,
2013-10-03 21:45:00,71.8,65.7,30.14,NNE,20,0.0,0.0,81,0.00,CLR,,0.01,WeatherDisplay:10.37,2013-10-04 01:45:00,
2013-10-03 21:46:00,72.1,65.9,30.14,NNE,20,0.0,0.0,81,0.00,CLR,,0.01,WeatherDisplay:10.37,2013-10-04 01:46:00,
2013-10-03 21:47:00,71.8,65.7,30.14,NNE,20,0.0,0.0,81,0.00,CLR,,0.01,WeatherDisplay:10.37,2013-10-04 01:47:00,
2013-10-03 21:48:00,71.7,65.6,30.14,NNE,20,0.0,0.0,81,0.00,CLR,,0.01,WeatherDisplay:10.37,2013-10-04 01:48:00,
2013-10-03 21:51:00,71.9,65.8,30.13,NNE,20,0.0,0.0,81,0.00,CLR,,0.01,WeatherDisplay:10.37,2013-10-04 01:51:00,
2013-10-03 21:52:00,71.8,66.0,30.14,NNE,20,0.0,0.0,82,0.00,CLR,,0.01,WeatherDisplay:10.37,2013-10-04 01:52:00,
2013-10-03 21:53:00,71.7,65.6,30.13,NNE,20,0.0,0.0,81,0.00,CLR,,0.01,WeatherDisplay:10.37,2013-10-04 01:53:00,
2013-10-03 21:56:00,71.6,65.5,30.14,NNE,20,0.0,0.0,81,0.00,CLR,,0.01,WeatherDisplay:10.37,2013-10-04 01:56:00,
2013-10-03 21:57:00,71.5,65.4,30.14,NNE,20,0.0,0.0,81,0.00,CLR,,0.01,WeatherDisplay:10.37,2013-10-04 01:57:00,
2013-10-03 21:58:00,71.4,65.3,30.14,NNE,20,0.0,0.0,81,0.00,CLR,,0.01,WeatherDisplay:10.37,2013-10-04 01:58:00,
2013-10-03 22:01:00,71.2,65.1,30.14,NNE,20,0.0,0.0,81,0.00,CLR,,0.01,WeatherDisplay:10.37,2013-10-04 02:01:00,
2013-10-03 22:02:00,71.2,65.1,30.14,NNE,20,0.0,0.0,81,0.00,CLR,,0.01,WeatherDisplay:10.37,2013-10-04 02:02:00,
2013-10-03 22:03:00,70.9,65.1,30.14,NNE,20,0.0,0.0,82,0.00,CLR,,0.01,WeatherDisplay:10.37,2013-10-04 02:03:00,
2013-10-03 22:06:00,71.1,65.3,30.14,NNE,20,0.0,0.0,82,0.00,CLR,,0.01,WeatherDisplay:10.37,2013-10-04 02:06:00,
2013-10-03 22:07:00,70.6,64.8,30.14,NNE,20,0.0,0.0,82,0.00,CLR,,0.01,WeatherDisplay:10.37,2013-10-04 02:07:00,
2013-10-03 22:08:00,71.0,65.2,30.14,NNE,20,0.0,0.0,82,0.00,CLR,,0.01,WeatherDisplay:10.37,2013-10-04 02:08:00,
2013-10-03 22:09:00,70.6,64.8,30.14,NNE,20,0.0,0.0,82,0.00,CLR,,0.01,WeatherDisplay:10.37,2013-10-04 02:09:00,
2013-10-03 22:11:00,70.7,65.3,30.14,NNE,20,0.0,0.0,83,0.00,CLR,,0.01,WeatherDisplay:10.37,2013-10-04 02:11:00,
2013-10-03 22:12:00,70.5,65.1,30.14,NNE,20,0.0,0.0,83,0.00,CLR,,0.01,WeatherDisplay:10.37,2013-10-04 02:12:00,
2013-10-03 22:13:00,70.5,65.1,30.14,NNE,20,0.0,0.0,83,0.00,CLR,,0.01,WeatherDisplay:10.37,2013-10-04 02:13:00,
2013-10-03 22:14:00,70.7,65.3,30.14,NNE,20,0.0,0.0,83,0.00,CLR,,0.01,WeatherDisplay:10.37,2013-10-04 02:14:00,
2013-10-03 22:16:00,70.3,64.9,30.14,NNE,20,0.0,0.0,83,0.00,CLR,,0.01,WeatherDisplay:10.37,2013-10-04 02:16:00,
2013-10-03 22:17:00,70.3,64.9,30.14,NNE,20,0.0,0.0,83,0.00,CLR,,0.01,WeatherDisplay:10.37,2013-10-04 02:17:00,
2013-10-03 22:18:00,70.3,64.9,30.14,NNE,20,0.0,0.0,83,0.00,CLR,,0.01,WeatherDisplay:10.37,2013-10-04 02:18:00,
2013-10-03 22:19:00,70.5,65.4,30.14,NNE,20,0.0,0.0,84,0.00,CLR,,0.01,WeatherDisplay:10.37,2013-10-04 02:19:00,
2013-10-03 22:22:00,70.0,64.9,30.14,NNE,20,0.0,0.0,84,0.00,CLR,,0.01,WeatherDisplay:10.37,2013-10-04 02:22:00,
2013-10-03 22:23:00,70.2,65.1,30.14,NNE,20,0.0,0.0,84,0.00,CLR,,0.01,WeatherDisplay:10.37,2013-10-04 02:23:00,
2013-10-03 22:24:00,69.9,64.8,30.14,NNE,20,0.0,0.0,84,0.00,CLR,,0.01,WeatherDisplay:10.37,2013-10-04 02:24:00,
2013-10-03 22:27:00,70.3,65.2,30.14,NNE,20,0.0,0.0,84,0.00,CLR,,0.01,WeatherDisplay:10.37,2013-10-04 02:27:00,
2013-10-03 22:28:00,69.9,64.8,30.14,NNE,20,0.0,0.0,84,0.00,CLR,,0.01,WeatherDisplay:10.37,2013-10-04 02:28:00,
2013-10-03 22:29:00,70.0,64.9,30.14,NNE,20,0.0,0.0,84,0.00,CLR,,0.01,WeatherDisplay:10.37,2013-10-04 02:29:00,
2013-10-03 22:30:00,70.0,65.3,30.14,NNE,20,0.0,0.0,85,0.00,CLR,,0.01,WeatherDisplay:10.37,2013-10-04 02:30:00,
2013-10-03 22:32:00,69.7,65.0,30.14,NNE,20,0.0,0.0,85,0.00,CLR,,0.01,WeatherDisplay:10.37,2013-10-04 02:32:00,
2013-10-03 22:33:00,69.8,65.1,30.14,NNE,20,0.0,0.0,85,0.00,CLR,,0.01,WeatherDisplay:10.37,2013-10-04 02:33:00,
2013-10-03 22:34:00,69.8,65.1,30.14,NNE,20,0.0,0.0,85,0.00,CLR,,0.01,WeatherDisplay:10.37,2013-10-04 02:34:00,
2013-10-03 22:35:00,70.0,65.3,30.14,NNE,20,0.0,0.0,85,0.00,CLR,,0.01,WeatherDisplay:10.37,2013-10-04 02:35:00,
2013-10-03 22:37:00,69.6,64.9,30.14,NNE,20,0.0,0.0,85,0.00,CLR,,0.01,WeatherDisplay:10.37,2013-10-04 02:37:00,
2013-10-03 22:38:00,69.8,65.1,30.14,NNE,20,0.0,0.0,85,0.00,CLR,,0.01,WeatherDisplay:10.37,2013-10-04 02:38:00,
2013-10-03 22:39:00,69.3,64.6,30.14,NNE,20,0.0,0.0,85,0.00,CLR,,0.01,WeatherDisplay:10.37,2013-10-04 02:39:00,
2013-10-03 22:40:00,69.5,64.8,30.14,NNE,20,0.0,0.0,85,0.00,CLR,,0.01,WeatherDisplay:10.37,2013-10-04 02:40:00,
2013-10-03 22:42:00,69.6,64.9,30.14,NNE,20,0.0,0.0,85,0.00,CLR,,0.01,WeatherDisplay:10.37,2013-10-04 02:42:00,
2013-10-03 22:43:00,69.5,64.8,30.14,NNE,20,0.0,0.0,85,0.00,CLR,,0.01,WeatherDisplay:10.37,2013-10-04 02:43:00,
2013-10-03 22:44:00,69.5,64.8,30.14,NNE,20,0.0,0.0,85,0.00,CLR,,0.01,WeatherDisplay:10.37,2013-10-04 02:44:00,
2013-10-03 22:45:00,69.2,64.8,30.14,NNE,20,0.0,0.0,86,0.00,CLR,,0.01,WeatherDisplay:10.37,2013-10-04 02:45:00,
2013-10-03 22:47:00,69.4,65.0,30.14,NNE,20,0.0,0.0,86,0.00,CLR,,0.01,WeatherDisplay:10.37,2013-10-04 02:47:00,
2013-10-03 22:48:00,69.3,64.9,30.14,NNE,20,0.0,0.0,86,0.00,CLR,,0.01,WeatherDisplay:10.37,2013-10-04 02:48:00,
2013-10-03 22:49:00,69.0,64.6,30.14,NNE,20,0.0,0.0,86,0.00,CLR,,0.01,WeatherDisplay:10.37,2013-10-04 02:49:00,
2013-10-03 22:51:00,69.4,65.0,30.14,NNE,20,0.0,0.0,86,0.00,CLR,,0.01,WeatherDisplay:10.37,2013-10-04 02:51:00,
2013-10-03 22:52:00,69.5,65.1,30.14,NNE,20,0.0,0.0,86,0.00,CLR,,0.01,WeatherDisplay:10.37,2013-10-04 02:52:00,
2013-10-03 22:53:00,69.5,64.8,30.14,NNE,20,0.0,0.0,85,0.00,CLR,,0.01,WeatherDisplay:10.37,2013-10-04 02:53:00,
2013-10-03 22:54:00,69.1,64.4,30.14,NNE,20,0.0,0.0,85,0.00,CLR,,0.01,WeatherDisplay:10.37,2013-10-04 02:54:00,
2013-10-03 22:55:00,69.3,64.6,30.14,NNE,20,0.0,0.0,85,0.00,CLR,,0.01,WeatherDisplay:10.37,2013-10-04 02:55:00,
2013-10-03 22:56:00,69.2,64.5,30.14,NNE,20,0.0,0.0,85,0.00,CLR,,0.01,WeatherDisplay:10.37,2013-10-04 02:56:00,
2013-10-03 22:57:00,69.0,64.3,30.14,NNE,20,0.0,0.0,85,0.00,CLR,,0.01,WeatherDisplay:10.37,2013-10-04 02:57:00,
2013-10-03 22:58:00,69.0,64.3,30.14,NNE,20,0.0,0.0,85,0.00,CLR,,0.01,WeatherDisplay:10.37,2013-10-04 02:58:00,
2013-10-03 22:59:00,68.9,64.5,30.14,NNE,20,0.0,0.0,86,0.00,CLR,,0.01,WeatherDisplay:10.37,2013-10-04 02:59:00,
2013-10-03 23:00:00,68.8,64.4,30.14,NNE,20,0.0,0.0,86,0.00,CLR,,0.01,WeatherDisplay:10.37,2013-10-04 03:00:00,
2013-10-03 23:01:00,69.0,64.6,30.14,NNE,20,0.0,0.0,86,0.00,CLR,,0.01,WeatherDisplay:10.37,2013-10-04 03:01:00,
2013-10-03 23:02:00,68.9,64.5,30.14,NNE,20,0.0,0.0,86,0.00,CLR,,0.01,WeatherDisplay:10.37,2013-10-04 03:02:00,
2013-10-03 23:04:00,68.8,64.4,30.14,NNE,20,0.0,0.0,86,0.00,CLR,,0.01,WeatherDisplay:10.37,2013-10-04 03:04:00,
2013-10-03 23:05:00,69.0,64.6,30.14,NNE,20,0.0,0.0,86,0.00,CLR,,0.01,WeatherDisplay:10.37,2013-10-04 03:05:00,
2013-10-03 23:06:00,68.6,64.2,30.14,NNE,20,0.0,0.0,86,0.00,CLR,,0.01,WeatherDisplay:10.37,2013-10-04 03:06:00,
2013-10-03 23:07:00,68.9,64.5,30.14,NNE,20,0.0,0.0,86,0.00,CLR,,0.01,WeatherDisplay:10.37,2013-10-04 03:07:00,
2013-10-03 23:09:00,68.8,64.4,30.14,NNE,20,0.0,0.0,86,0.00,CLR,,0.01,WeatherDisplay:10.37,2013-10-04 03:09:00,
2013-10-03 23:10:00,68.9,64.5,30.14,NNE,20,0.0,0.0,86,0.00,CLR,,0.01,WeatherDisplay:10.37,2013-10-04 03:10:00,
2013-10-03 23:11:00,68.7,64.7,30.14,NNE,20,0.0,0.0,87,0.00,CLR,,0.01,WeatherDisplay:10.37,2013-10-04 03:11:00,
2013-10-03 23:12:00,68.9,64.9,30.14,NNE,20,0.0,0.0,87,0.00,CLR,,0.01,WeatherDisplay:10.37,2013-10-04 03:12:00,
2013-10-03 23:14:00,68.8,64.4,30.14,NNE,20,0.0,0.0,86,0.00,CLR,,0.01,WeatherDisplay:10.37,2013-10-04 03:14:00,
2013-10-03 23:15:00,68.7,64.3,30.14,NNE,20,0.0,0.0,86,0.00,CLR,,0.01,WeatherDisplay:10.37,2013-10-04 03:15:00,
2013-10-03 23:16:00,68.5,64.5,30.14,NNE,20,0.0,0.0,87,0.00,CLR,,0.01,WeatherDisplay:10.37,2013-10-04 03:16:00,
2013-10-03 23:17:00,69.0,65.0,30.14,NNE,20,0.0,0.0,87,0.00,CLR,,0.01,WeatherDisplay:10.37,2013-10-04 03:17:00,
2013-10-03 23:20:00,68.8,64.8,30.14,NNE,20,0.0,0.0,87,0.00,CLR,,0.01,WeatherDisplay:10.37,2013-10-04 03:20:00,
2013-10-03 23:21:00,68.6,64.6,30.14,NNE,20,0.0,0.0,87,0.00,CLR,,0.01,WeatherDisplay:10.37,2013-10-04 03:21:00,
2013-10-03 23:22:00,68.8,64.8,30.14,NNE,20,0.0,0.0,87,0.00,CLR,,0.01,WeatherDisplay:10.37,2013-10-04 03:22:00,
2013-10-03 23:23:00,68.9,64.9,30.14,NNE,20,0.0,0.0,87,0.00,CLR,,0.01,WeatherDisplay:10.37,2013-10-04 03:23:00,
2013-10-03 23:25:00,68.6,64.6,30.14,NNE,20,0.0,0.0,87,0.00,CLR,,0.01,WeatherDisplay:10.37,2013-10-04 03:25:00,
2013-10-03 23:27:00,68.4,64.4,30.14,NNE,20,0.0,0.0,87,0.00,CLR,,0.01,WeatherDisplay:10.37,2013-10-04 03:27:00,
2013-10-03 23:28:00,68.6,64.6,30.14,NNE,20,0.0,0.0,87,0.00,CLR,,0.01,WeatherDisplay:10.37,2013-10-04 03:28:00,
2013-10-03 23:30:00,68.3,63.9,30.14,NNE,20,0.0,0.0,86,0.00,CLR,,0.01,WeatherDisplay:10.37,2013-10-04 03:30:00,
2013-10-03 23:31:00,68.1,63.8,30.14,NNE,20,0.0,0.0,86,0.00,CLR,,0.01,WeatherDisplay:10.37,2013-10-04 03:31:00,
2013-10-03 23:32:00,68.1,64.1,30.14,NNE,20,0.0,0.0,87,0.00,CLR,,0.01,WeatherDisplay:10.37,2013-10-04 03:32:00,
2013-10-03 23:33:00,68.2,64.2,30.14,NNE,20,0.0,0.0,87,0.00,CLR,,0.01,WeatherDisplay:10.37,2013-10-04 03:33:00,
2013-10-03 23:35:00,68.4,64.4,30.14,NNE,20,0.0,0.0,87,0.00,CLR,,0.01,WeatherDisplay:10.37,2013-10-04 03:35:00,
2013-10-03 23:36:00,68.2,64.2,30.14,NNE,20,0.0,0.0,87,0.00,CLR,,0.01,WeatherDisplay:10.37,2013-10-04 03:36:00,
2013-10-03 23:37:00,68.3,64.3,30.14,NNE,20,0.0,0.0,87,0.00,CLR,,0.01,WeatherDisplay:10.37,2013-10-04 03:37:00,
2013-10-03 23:38:00,68.0,64.0,30.14,NNE,20,0.0,0.0,87,0.00,CLR,,0.01,WeatherDisplay:10.37,2013-10-04 03:38:00,
2013-10-03 23:39:00,68.3,64.3,30.14,NNE,20,0.0,0.0,87,0.00,CLR,,0.01,WeatherDisplay:10.37,2013-10-04 03:39:00,
2013-10-03 23:41:00,67.9,63.9,30.14,NNE,20,0.0,0.0,87,0.00,CLR,,0.01,WeatherDisplay:10.37,2013-10-04 03:41:00,
2013-10-03 23:42:00,68.0,64.0,30.14,NNE,20,0.0,0.0,87,0.00,CLR,,0.01,WeatherDisplay:10.37,2013-10-04 03:42:00,
2013-10-03 23:43:00,68.0,64.0,30.14,NNE,20,0.0,0.0,87,0.00,CLR,,0.01,WeatherDisplay:10.37,2013-10-04 03:43:00,
2013-10-03 23:45:00,67.9,64.2,30.14,NNE,20,0.0,0.0,88,0.00,CLR,,0.01,WeatherDisplay:10.37,2013-10-04 03:45:00,
2013-10-03 23:46:00,68.0,64.3,30.14,NNE,20,0.0,0.0,88,0.00,CLR,,0.01,WeatherDisplay:10.37,2013-10-04 03:46:00,
2013-10-03 23:47:00,67.9,64.2,30.14,NNE,20,0.0,0.0,88,0.00,CLR,,0.01,WeatherDisplay:10.37,2013-10-04 03:47:00,
2013-10-03 23:48:00,67.8,64.1,30.14,NNE,20,0.0,0.0,88,0.00,CLR,,0.01,WeatherDisplay:10.37,2013-10-04 03:48:00,
2013-10-03 23:51:00,67.8,64.1,30.14,NNE,20,0.0,0.0,88,0.00,CLR,,0.01,WeatherDisplay:10.37,2013-10-04 03:51:00,
2013-10-03 23:53:00,67.7,64.0,30.14,NNE,20,0.0,0.0,88,0.00,CLR,,0.01,WeatherDisplay:10.37,2013-10-04 03:53:00,
2013-10-03 23:56:00,67.6,64.2,30.14,NNE,20,0.0,0.0,89,0.00,CLR,,0.01,WeatherDisplay:10.37,2013-10-04 03:56:00,
2013-10-03 23:59:00,67.8,64.4,30.14,NNE,20,0.0,0.0,89,0.00,CLR,,0.01,WeatherDisplay:10.37,2013-10-04 03:59:00,